Filtrer par Nom Sexe Groupe d'age
LEPAPE Marmotte Granfondo Alpes 2002
RG. DOS. TEMPS CAT RG. POINTS
1 107 DEKKER BERT 06:39:58:000 D 1 120.00 LEKKERKERPIK, Pays-Bas
3 9009 SORICE MASSIMO 06:44:24:000 C 1 119.53 FRANCO DI SOTTO, ITALIE
4 9046 BEILLEVERT LAURENT 06:45:55:000 D 2 119.37 GIEN, FRANCE
5 13 DORFMAN XAVIER 06:49:45:000 C 2 118.96 ATTIGNAT ONCIN, FRANCE
6 9062 SAUERWEIN THOMAS 06:54:18:000 D 3 118.47 DENZLINGEN, ALLEMAGNE
7 9097 CHEVALIER PIERRE 06:56:17:000 D 4 118.26 VILLIEU, FRANCE
8 9087 Daniele Bertozzi 06:59:45:000 E 1 117.89 Santarcangelo di R. (RN), ITALIE
9 315 CALONNE OLIVIER 07:00:24:000 D 5 117.82 LE CREUSOT, FRANCE
10 9066 HOLLANDER BERRY 07:01:31:000 D 6 117.70 SASSENHEIM, Pays-Bas
11 9010 BACHINI MAURIZIO 07:02:52:000 C 3 117.56 ORENTANO, ITALIE
12 279 RIART ESCRIBA GERARD 07:04:11:000 D 7 117.42 AIXIRIVALL, ANDORRE
13 31 DULAURENT OLIVIER 07:04:53:000 C 4 117.35 CAMBRONNE LES CLERMONT, FRANCE
14 9042 GUERAUD PATRICK 07:05:36:000 D 8 117.27 ALPE D HUEZ, FRANCE
15 9034 WESTSTRATE ROEDI 07:06:04:000 D 9 117.22 s-Heer Arendskerke, Pays-Bas
16 64 FJORD KELD 07:06:56:000 D 10 117.13 LYNGE, DANEMARK
17 70 SOENEN JOHN 07:08:56:000 D 11 116.92 MAASMECHELEN, BELGIQUE
18 308 KNOL ROBERT 07:09:05:000 C 5 116.90 UTRECHT, Pays-Bas
19 121 COLLADO FABRICE 07:11:32:000 C 6 116.64 MEUDON, FRANCE
20 9022 SIGNORI MAURIZIO 07:12:09:000 D 12 116.57 PRADALUNGA BG, ITALIE
21 3859 BERARD JACQUES 07:12:51:000 E 2 116.50 PARIS, FRANCE
22 54 KAMERZIN STEPHANE 07:12:53:000 C 7 116.50 BELMONT, SUISSE
23 262 HIDDEMA OEGE 07:13:13:000 D 13 116.46 GRONINGEN, Pays-Bas
24 7 JASSERAND BRUNO 07:13:51:000 D 14 116.39 LA MOTTE, FRANCE
25 189 RANSON JEAN HERVE 07:14:01:000 D 15 116.37 GRANDE SYNTHE, FRANCE
26 9064 NUSS ALEXANDRE 07:14:49:000 D 16 116.29 LYON, FRANCE
27 65 SPEYBROUCK FILIP 07:14:59:000 C 8 116.27 BRUGGE, BELGIQUE
28 30 LEUCKX MARC 07:15:03:000 D 17 116.26 LENNIK, BELGIQUE
29 276 SZTERN AURELIEN 07:15:21:000 C 9 116.23 MEUDON LA FORET, France
30 147 BRIAND DOMINIQUE 07:18:31:000 E 3 115.89 FEYZIN, FRANCE
31 217 HUTS OLIVIER 07:18:39:000 D 18 115.88 TIENEN, BELGIQUE
32 9017 STEVENS THIERRY 07:19:21:000 C 10 115.81 BERTRIX, BELGIQUE
33 92 WESSELS FRANS 07:19:25:000 D 19 115.80 OOSTERHOUT, Pays-bas
34 3793 BRAMBILLA ALBERTO 07:19:52:000 D 20 115.75 OGGIONO (LECCO), ITALIE
35 22 MULLER SEILLER CHRISTINE 07:19:57:000 A 1 115.74 HAEGEN, France
36 1653 MOSSELMANS BERNARD 07:20:26:000 D 21 115.69 WAVRE, BELGIQUE
38 164 CHIZELLE YVES 07:20:43:000 D 22 115.66 CHAUFFAILLES, FRANCE
39 306 MELIS KRIS 07:21:14:000 D 23 115.61 KASTERLEE, BELGIQUE
40 29 SEVENANTS TOM 07:21:17:000 D 24 115.60 ZOUTLEEUW, BELGIQUE
41 86 PARDAENS MAARTEN 07:21:49:000 C 11 115.54 PELLENBERG, BELGIQUE
42 2359 SNIJDERS PATRICK 07:22:14:000 D 25 115.50 HAARSTEEG, Pays-Bas
43 125 BIZIEN ROLAND 07:22:41:000 D 26 115.45 BREST, FRANCE
44 141 SALIOU MICHEL 07:22:41:600 D 27 115.45 CARANTEC, FRANCE
45 9018 FRANCKEN FRANK 07:22:58:000 D 28 115.42 PUTTE, Pays-Bas
46 1100 BLOKS HANS 07:23:48:000 C 12 115.33 HELMOND, Pays-Bas
47 9024 WILLEMSENS PETER 07:24:25:000 D 29 115.27 KASTERLEE, BELGIQUE
48 2048 TORFS FILIP 07:24:50:000 D 30 115.22 ROTSELAAR, BELGIQUE
49 437 SIJEN DANNY 07:25:27:000 C 13 115.16 MAASTRICHT, Pays-Bas
50 191 SALMON JEAN-YVES 07:25:28:000 E 4 115.16 THURINS, France
51 9008 SANAHUGES GILLES 07:25:40:000 D 31 115.13 GRENOBLE, FRANCE
52 111 PATUEL IAN 07:26:21:000 D 32 115.06 BEVILLE LE COMTE, France
53 9079 VAN WEZEL MICHEL 07:26:28:000 E 5 115.05 TERBORG, Pays-Bas
54 9007 HECTORS JOOST 07:26:36:000 C 14 115.03 UTRECHT, Pays-Bas
55 74 VANDENHOUDT RAF 07:28:16:000 D 33 114.86 DIEST, BELGIQUE
56 2957 TURCO FAUSTO 07:28:38:000 D 34 114.82 VANZAGHELLO (MI), ITALIE
57 180 SERRET LUDOVIC 07:28:41:300 D 35 114.81 VILLENEUVE LES MAGUELONE, FRANCE
58 298 LEVELT WILLEM 07:28:53:000 D 36 114.79 RIJSWIJK, Pays-Bas
59 3242 BRIVIO ALESSIO 07:29:00:000 C 15 114.78 MISSAGLIA, ITALIE
60 744 DERKSEN ERWIN 07:29:23:000 D 37 114.74 UTRECHT, Pays-Bas
61 18 TETAZ OLIVIER 07:29:59:000 D 38 114.67 MOUXY, France
62 9059 PEETERS DIRK 07:30:31:000 E 6 114.62 BEVEL, BELGIQUE
63 4031 LAGHI DANIELE 07:31:42:000 E 7 114.49 FORLI, ITALIE
64 4028 BRIGLIADORI LUCA 07:31:42:900 D 39 114.49 FORLI, ITALIE
65 4034 SIRILLI VANNI 07:32:02:000 D 40 114.46 FORLI, ITALIE
66 902 VAN HOEDENAGHE FREDERIK 07:32:05:300 C 16 114.45 DENDERWINDEKE, BELGIQUE
67 2901 BARTHELEMY JEAN CLAUDE 07:32:06:000 D 41 114.45 PONTCHARRA, France
68 5173 LEOPOLDO RONCATO 07:32:27:000 E 8 114.41 ALBAREDO (TV), ITALIE
69 1625 VERHULST EDDY 07:32:40:000 D 42 114.39 LICHTERVELDE, BELGIQUE
70 305 PESANDO GILLES 07:33:23:000 E 9 114.31 VIZILLE, FRANCE
72 152 HIMEUR FRANCIS 07:33:31:000 D 43 114.30 ORRY LA VILLE, FRANCE
73 1088 GERTOSIO MICHEL 07:33:33:700 D 44 114.30 CUERS, FRANCE
74 242 MOREL GILLES 07:33:35:000 E 10 114.29 ANNECY LE VIEUX, FRANCE
75 3995 JOULIN ERIC 07:33:41:000 C 17 114.28 NANCY, FRANCE
76 4569 AL THIJS 07:35:14:000 C 18 114.11 WORMER, Pays-Bas
77 9002 BESSIERE THIERRY 07:35:15:100 D 45 114.11 THONES, FRANCE
78 118 ROEGIERS JOHAN 07:36:17:100 D 46 114.00 LIEVEGEM, Belgique
79 1623 CARBONEZ PATRICK 07:36:22:000 D 47 114.00 LICHTERVELDE, BELGIQUE
80 4404 KKOIJMANS RUUD 07:36:32:000 C 19 113.98 BEEK EN DONK, Pays-Bas
81 3517 FONTAINE ALAIN 07:36:38:000 D 48 113.97 MARTIGNY, SUISSE
83 258 RUESINK ERIK 07:37:40:000 D 49 113.86 DINXPERLO, Pays-Bas
84 397 HUIJBREGTS HANS 07:37:48:000 C 20 113.84 WERNHOUT, Pays-Bas
85 1254 DE RUITER BERJAN 07:38:18:000 C 21 113.79 WILLEMSOORD, Pays-Bas
86 4630 GAAL BERT 07:38:32:000 D 50 113.76 PURMEREND, Pays-Bas
87 1951 ERIKS NIELS 07:38:39:000 C 22 113.75 SCHAGEN, Pays-Bas
88 2041 GONZALEZ FUENTES JUANGO 07:38:51:000 D 51 113.73 ESCALDES - ENGORDANY, 25
89 2039 EL ALLAOUI MOULOUD 07:38:51:700 C 23 113.73 ANDORRA LA VELLA, 25
90 5165 ENRICO ANDRETTA 07:38:56:000 D 52 113.72 VEDELAGO (TV), ITALIE
91 2495 LUYET YVES 07:39:14:000 D 53 113.69 SAVIESE, SUISSE
92 135 MOIROUX THIERRY 07:39:38:000 E 11 113.65 POLEYMIEYX, FRANCE
93 1764 LAMONTAGNE PIERRE MARC 07:39:58:000 E 12 113.61 ST AUBIN, FRANCE
94 166 GAULANDEAU HUGUES 07:40:23:000 E 13 113.57 AVARAY, FRANCE
95 851 BOONEN BART 07:41:00:000 D 54 113.50 NEER, Pays-Bas
96 338 GAY PIERRE YVES 07:41:05:000 D 55 113.49 LEVRON, SUISSE
97 99 LOUMAN RICHARD 07:41:07:000 C 24 113.49 AMSTERDAM, Pays-Bas
98 1442 VAN GENDT RON 07:41:15:000 E 14 113.47 EINDHOVEN, Pays-Bas
99 201 CELLIER JEAN PIERRE 07:41:36:000 E 15 113.44 CRAPONNE, FRANCE
100 9004 RIETVELD LARS 07:41:40:000 E 16 113.43 OUDEWATER, Pays-Bas
101 9078 GOVAARTS MAIKEL 07:41:44:000 C 25 113.42 DRUNEN, Pays-Bas
102 289 BERTHOD PATRICK 07:41:48:000 C 26 113.42 VEX, SUISSE
103 85 MARCOEN MARC 07:42:06:000 D 56 113.38 PELLENBERG, Belgique
104 187 RICHERT JEAN-JACQUES 07:42:07:500 D 57 113.38 QUATZENHEIM, FRANCE
105 72 STANDRING RUSSEL 07:42:15:000 D 58 113.37 VIF, FRANCE
106 9085 MICHEL PIERRE 07:42:38:000 C 27 113.33 PRANLES, FRANCE
107 345 FREZIERES JEROME 07:43:00:000 D 59 113.29 MAISONS ALFORT, FRANCE
108 1515 SZOSTEK NOEL 07:43:01:400 D 60 113.29 MAASMECHELEN, BELGIQUE
109 122 LUGLIA DANIEL 07:43:08:000 E 17 113.27 PIERREFEU, France
110 1085 SERRANO SAEZ SANTIAGO 07:43:13:000 D 61 113.27 NAQUERA, ESPAGNE
111 5100 MIRO PASCUAL FELIX 07:43:13:400 E 18 113.27 VILAFRANCA DEL PENEDES (BARCELONA), ESPAGNE
112 3028 CODOUREY LIONEL 07:43:16:000 C 28 113.26 CHANDOLIN/SAVIESE, SUISSE
114 282 LANCELOT MICHEL 07:43:35:000 E 19 113.23 SAINT GENIS LAVAL, France
115 272 ALVAREZ RODRIGUEZ MANUEL 07:44:05:000 D 62 113.17 ESCALDES, ANDORRE
116 169 FERKET JO 07:44:12:000 E 20 113.16 VALKENBURG, Pays-bas
118 292 MENANT ANDRE 07:44:54:000 F 1 113.09 CAP D'AIL, FRANCE
119 97 VERHOEVEN LAURA 07:44:59:000 B 1 113.08 HAARLEM, Pays-Bas
120 3563 SMITS SANDER 07:45:08:000 C 29 113.06 UTRECHT, Pays-bas
121 1065 GHIJSENS MARC 07:45:11:000 C 30 113.06 BORGLOON, BELGIQUE
122 535 LUIJENDIJK ANTHONIE 07:45:32:000 C 31 113.02 ALPHEN/D RYN, Pays-Bas
123 5170 GIANNI DIDONE 07:45:54:000 D 64 112.98 ALBAREDO (TV), ITALIE
124 3626 RONCA MARC 07:45:55:000 C 32 112.98 GARDANNE, FRANCE
125 541 DONKERSLOOT ARJEN 07:46:01:000 C 33 112.97 LEIDEN, Pays-Bas
126 281 BERAUD RICHARD 07:46:07:000 E 21 112.96 CHARBONNIERES, France
127 2568 SORENSEN ASGER 07:46:36:000 E 22 112.91 RUDKOBING, DANEMARK
128 2037 CASTILLO ESTRELLA FRANCESC 07:47:04:000 D 65 112.86 ESCALDES - ENGORDANY, 25
129 937 HOFSTEE ED 07:47:23:000 D 66 112.82 BOSKOOP, Pays-Bas
130 2413 GROOTVELD ANDRE 07:47:27:000 D 67 112.81 ZOETERMEER, Pays-Bas
131 3291 THOMARON KARL 07:48:17:000 D 68 112.73 CESSET, FRANCE
132 2549 WESTPHAL THOMAS 07:48:35:000 D 69 112.69 SLANGERUP, DANEMARK
133 4398 ALDERTS ARD 07:48:41:000 D 70 112.68 ST NICOLAASGA, Pays-Bas
134 1410 TABAK GEERT 07:49:25:000 E 23 112.61 BERGEIJK, Pays-Bas
135 1697 DROZD PHILIPPE 07:49:25:900 E 24 112.61 ISSANS, FRANCE
136 44 COMBES JEAN MARC 07:49:26:400 D 71 112.60 FUVEAU, FRANCE
137 59 LINTERMANS RIK 07:49:54:000 E 25 112.55 SINT GENESIUS RODE, BELGIQUE
138 9096 DEL CASTILLO JOSE 07:50:39:000 F 2 112.47 BEAUMONT-LSS-VALENCE, FRANCE
139 4399 VAN DER VEEN BERTJAN 07:50:54:000 D 72 112.45 JOURE, Pays-Bas
140 1387 TOCK PETER 07:51:24:000 E 26 112.39 ASSENDELFT, Pays-Bas
141 287 ACEDO JOSE 07:51:46:000 D 73 112.36 JACOU, FRANCE
142 43 GIORGALLA SERGE 07:51:49:000 E 27 112.35 paris, France
143 40 MIRANDA DIDIER 07:52:10:000 D 74 112.31 ST BERNARD DU TOUVET, France
144 73 NIEUWENHUIS HENK 07:52:19:000 D 75 112.30 RIJSSEN, Pays-Bas
145 1105 SANCHEZ CARRASCOSA PEDRO 07:52:31:000 E 28 112.28 BURJASOT, ESPAGNE
146 3243 BRIVIO FABIO 07:52:50:000 D 76 112.24 MERATE, ITALIE
147 1992 MOURIS BEN 07:53:14:000 E 29 112.20 Baambrugge, Pays-Bas
148 299 VAN IMPE WALTER 07:53:32:000 F 3 112.17 GRAMMONT, BELGIQUE
149 1062 BLADT-HANSEN OLE 07:54:18:000 E 30 112.08 RIBE, Danemark
150 52 PASTOR JOSE LUIS 07:54:20:000 C 34 112.08 TRAVAILLAN, FRANCE
151 3842 IGARTUA MARCOS 07:54:21:000 D 77 112.08 VITORIA (ALAVA), ESPAGNE
152 3479 JALVING MIKAL 07:54:26:000 D 78 112.07 COPENHAGUE, DANEMARK
153 2422 AZPIROZ ZAPIRAIN JUAN LUIS 07:54:34:000 E 31 112.06 HERNANI, ESPAGNE
154 81 BOLLEN RALPH 07:54:42:000 C 35 112.04 MEERSSEN, Pays-Bas
155 1621 VANANTWERPEN JAN 07:54:45:000 E 32 112.04 LICHTERVELDE, BELGIQUE
156 5027 VILANOVA TORMAS JAUME 07:54:49:000 E 33 112.03 ANSERALL, ESPAGNE
157 5029 VICENTE VIVES EMILI 07:54:50:000 D 79 112.03 LA SEU D URGELL, ESPAGNE
158 280 BOSCHKER MARCEL 07:55:01:000 D 80 112.01 WOERDEN, Pays-Bas
159 3269 SCHAAFSMA HARCO 07:55:58:000 D 81 111.91 RIJNSBURG, Pays-bas
160 2387 GOBET NICOLAS 07:56:43:000 D 82 111.83 NYON, SUISSE
161 2276 HEFNER HEIKO 07:56:44:300 D 83 111.83 HEETSTADT, ALLEMAGNE
162 9029 SORINE MICHEL 07:56:48:000 D 84 111.82 LYON, FRANCE
163 2630 MEULDERS ROBBY 07:56:48:600 D 85 111.82 RAVELS, BELGIQUE
164 1772 WENGER GREGOIRE 07:56:52:000 D 86 111.81 VETROZ (VS), SUISSE
165 1522 RAYNAUD FRANCK 07:56:58:000 D 87 111.80 TULLE, FRANCE
166 176 HOJRUP MICKAEL 07:57:32:000 D 88 111.74 SLANGERUP, DANEMARK
167 257 JANSSEN JAN-WILLEM 07:57:39:000 D 89 111.73 OPLOO, Pays-Bas
168 3623 JANSSEN ZJEF 07:58:38:000 C 36 111.62 LUMMEN, BELGIQUE
169 2027 RUYTERS BEN 07:58:49:000 D 90 111.60 WAANRODE, BELGIQUE
170 934 HERIJGERS AD 07:58:58:000 E 34 111.59 RIJSBERGEN, BELGIQUE
171 2824 KRAMER RICHARD 07:59:13:000 C 37 111.56 DRIEMOND, Pays-Bas
172 538 VISSCHER KARINA 07:59:34:000 A 2 111.52 LEIDEN, Pays-Bas
173 3618 MAURIZIO GIARDINI 07:59:46:000 E 35 111.50 , ITALIE
174 2058 CASALINI FRANCO 08:00:17:000 D 91 111.45 CAPANNOLI, ITALIE
175 10 SCHWAB PATRICK 08:00:25:000 F 4 111.43 ST BAUZILLE DE MONTMEL, FRANCE
176 90 ABEL JEAN PHILIPPE 08:01:33:000 D 92 111.31 MOURS ST EUSEBE, France
177 1224 MARTINSEN BO 08:01:39:000 E 36 111.30 ESBJERG, Danemark
178 9051 FUVELLE RAYMOND 08:01:47:000 E 37 111.29 ROCHE LA MOLIERE, FRANCE
179 114 NAVARRO SERGE 08:01:51:000 D 93 111.28 MARTIGUES, FRANCE
180 2254 SCHOOFS DIRK 08:01:57:000 D 94 111.27 LEOPOLDSBURG, BELGIQUE
181 1241 VITTE JEAN LOUIS 08:02:19:000 E 38 111.23 AMBILLY, FRANCE
182 1013 HOBE PATRICK 08:02:28:000 E 39 111.22 SERAING, BELGIQUE
183 146 DOUETTE HERVE 08:02:50:000 D 95 111.18 LUXEUIL LES BAINS, FRANCE
184 229 RITSERVELOT DANNY 08:02:53:000 D 96 111.17 GERAARDSBERGEN, BELGIQUE
185 3016 HALOUZE JEAN-FRANCOIS 08:02:57:000 C 38 111.16 DAGNEUX, FRANCE
186 331 FRANCKAERT FIRMIN 08:03:27:000 E 40 111.11 BELSELE, BELGIQUE
187 2424 EIZAGIRRE LASA PEDRO ESTEBAN 08:03:43:000 E 41 111.08 HERNANI, ESPAGNE
188 984 LUBBERS RENE 08:03:51:000 E 42 111.07 DINXPERLO, Pays-Bas
189 1652 TIMMERMANS THOMAS 08:03:52:200 C 39 111.07 LA HULPE, BELGIQUE
190 784 BERTRAND JEAN-PAUL 08:03:55:000 E 43 111.06 SAINTE FOY LES LYON, FRANCE
191 5282 LEONARD MARC 08:04:22:000 D 97 111.01 THIONVILLE, FRANCE
192 3339 SCHMID PATRICK 08:04:32:000 D 98 111.00 ONEX, SUISSE
194 9015 AUDRIN PHILIPPE 08:04:50:000 C 40 110.96 ST JEAN DE VEDAS, FRANCE
195 1134 NOORMAN RONALD 08:04:51:000 D 99 110.96 HENGELO, Pays-Bas
196 2734 VAN HOMOET DIK 08:04:58:000 E 44 110.95 DEN HAAG, Pays-Bas
197 2023 SELLESLAGH GUNTER 08:05:00:000 C 41 110.95 ST KATELIJNE WAVER, BELGIQUE
198 3512 GOETSCHALCKX PETER 08:05:27:000 D 100 110.90 RIJKEVORSEL, BELGIQUE
199 3154 VAN HOEGAERDEN PAUL 08:05:45:000 F 5 110.87 HULDENBERG, BELGIQUE
200 732 RUETSCH RAPHAEL 08:05:50:000 C 42 110.86 JETTINGEN, FRANCE
201 2296 COLIN HERVE 08:06:13:000 D 101 110.82 LA MOTTE-SERVOLEX, FRANCE
202 9020 DAVOURIE ANTHONY 08:06:16:000 C 43 110.81 HAEDINVAST, FRANCE
203 9053 MEYER JACQUES 08:06:27:000 E 45 110.79 GAP, FRANCE
204 9006 HATILIP WILLIAM 08:06:39:000 D 102 110.77 Toulouse, France
205 991 MEYER TIM 08:06:50:000 C 44 110.75 PURMEREND, Pays-Bas
206 1188 BOERBOOM MARC 08:07:02:000 C 45 110.73 OSS, Pays-Bas
207 366 NOORDIJK AB 08:07:03:000 E 46 110.73 GOES, Pays-Bas
208 1818 DE WIT HEIN 08:07:31:000 E 47 110.68 BERGEYK, Pays-Bas
209 352 VAN SLOCHTEREN FREBUS 08:07:34:000 C 46 110.67 UTRECHT, Pays-Bas
210 9021 PAAUW PETER 08:07:47:000 D 103 110.65 RIJNSBURG, Pays-Bas
211 1268 RAEYMAEKERS LUC 08:08:05:000 D 104 110.62 RETIE, BELGIQUE
212 220 TRICHARD RODOLPHE 08:08:09:000 C 47 110.61 VILLIEU, FRANCE
213 5241 ANDERSON PAUL 08:08:24:000 C 48 110.58 HAMPTON WICK, Royaume-Uni
214 540 ZWITSER JENS 08:08:30:000 C 49 110.57 KATWIJK, Pays-Bas
215 284 METIVIER DANIEL 08:08:38:000 F 6 110.56 SISTERON, FRANCE
216 1166 VAN DER LINDEN DAVID 08:08:42:000 D 105 110.55 MIERLO, Pays-Bas
217 1112 RYCKBOSCH JAN 08:09:16:000 D 106 110.49 MELSELE, Belgique
218 1361 POST TOMMY 08:09:37:000 D 107 110.45 KAATSHEUVEL, Pays-Bas
219 9068 HERTOGH MICHEL 08:09:59:000 F 7 110.42 WOUW, Pays-Bas
220 3029 DEVOS LIEVEN 08:10:01:000 C 50 110.41 WINGENE, BELGIQUE
221 3454 FLOUQUET THOMAS 08:10:06:000 D 108 110.40 GRENOBLE, FRANCE
222 5273 MENESTRIER BENOIT 08:10:10:000 C 51 110.40 BESANCON, FRANCE
223 2042 LOPEZ DOMINGUEZ EDUR 08:10:16:000 C 52 110.39 ESCALDES - ENGORDANY, 25
224 3271 VIALARET JEAN CHRISTOPHE 08:10:21:000 D 109 110.38 THUNDER BAY ONTARIO, 13
225 2508 VAURS JEAN LOUIS 08:10:27:000 F 8 110.37 BRETENOUX, FRANCE
226 277 PARIS RICHARD 08:10:42:000 D 110 110.34 SOLERS, FRANCE
227 3371 COMPAGNER ROELOF 08:10:51:000 D 111 110.32 STAPHORST, Pays-Bas
228 1869 RINGENALDUS RALF 08:11:02:000 C 53 110.30 ASSEN, Pays-Bas
229 804 BERRETTA MARCO 08:11:04:000 D 112 110.30 CARCARE, ITALIE
230 457 VAN DER KNAAP RAMON 08:11:07:000 C 54 110.30 HELLE VOETSHUIS, Pays-Bas
231 4898 PENNINCHE TOM 08:11:32:000 C 55 110.25 GRIMBERGEN, BELGIQUE
233 871 TOET ALFRED 08:11:55:000 D 113 110.21 DEN HAAG, Pays-Bas
234 2507 ROMEU OLIVIER 08:11:56:000 D 114 110.21 GIRAC, FRANCE
235 4923 ZANNONI FAUSTO 08:12:07:000 D 115 110.19 ALBINEA (R.E.), ITALIE
236 2384 JACQUIN GERARD 08:12:13:000 E 49 110.18 BAUME LES DAMES, France
237 1624 GOOSSENS KURT 08:12:15:000 D 116 110.17 AALTER, BELGIQUE
238 3131 VAN GOEYE IGNACE 08:12:20:000 D 117 110.17 KRUIBEKE, BELGIQUE
239 426 RUNDERKAMP TOM 08:12:25:000 D 118 110.16 BREDA, Pays-Bas
240 127 EQUOY-CLEMANN ISABELLE 08:12:42:000 B 2 110.13 ST PRIX, FRANCE
241 1483 WEKEMA JOHAN 08:12:59:000 D 119 110.10 PEIZE, Pays-Bas
242 393 HEUBEL JOHN 08:12:59:800 E 50 110.10 MAASTRICHT, Pays-Bas
243 239 MONFORT GUY 08:13:09:000 F 9 110.08 LIERNEUX, BELGIQUE
244 241 CLEYET MAREL ERNEST 08:13:49:000 E 51 110.01 LYON, FRANCE
245 2669 BLOT XAVIER 08:13:56:000 D 120 110.00 PARIS, France
246 1491 WOUTERS RON 08:13:58:800 D 121 109.99 ZUNDERT, Pays-Bas
247 1664 ROUSTAIN DIDIER 08:14:05:000 D 122 109.98 LE CHAMBON SUR LIGNON, FRANCE
248 159 PAINTER RUSSELL 08:14:26:000 D 123 109.94 ANERLEY, Royaume-uni
249 179 PERRA HENRI 08:14:32:000 D 124 109.93 DARDILLY, France
250 775 RITHNER PIERRE ALAIN 08:14:35:000 E 52 109.92 Vallorbe, Suisse
251 1537 REITSEMA EDUARD ALEXANDER 08:14:37:000 D 125 109.92 GOUDA, Pays-bas
252 1702 BROUARD CHRISTIAN 08:14:46:000 F 10 109.91 BAUGY, FRANCE
253 1518 DE VAAN BAS 08:14:56:000 C 56 109.89 DRUTEN, Pays-Bas
254 304 CHAMPALLE PASCAL 08:15:26:000 E 53 109.83 OULLINS, FRANCE
255 3197 VINOT ARNAUD 08:15:45:000 C 57 109.80 ST ANDRE LES VERGERS, FRANCE
256 255 Eikelboom Hiddo 08:16:10:000 D 126 109.76 WESTON, Etats-Unis
257 4410 ENGBERSEN MAURICE 08:16:17:000 D 127 109.74 NEDERWEERT, Pays-Bas
258 267 RAMAN DIRK 08:16:19:000 D 128 109.74 LOKEREN, BELGIQUE
259 57 CHANUT CHRISTOPHE 08:16:22:000 D 129 109.74 CRAPONNE, FRANCE
260 137 HOCHART FREDERIC 08:16:30:000 E 54 109.72 SŠVRES, FRANCE
261 88 JEANDEL FRANCIS 08:16:32:800 F 11 109.72 Mirecourt, France
262 2271 DUPUIS GUILLAUME 08:16:33:000 C 58 109.72 LIMOURS, FRANCE
263 2518 DE CLERCQ MARC 08:16:35:000 E 55 109.71 ZWALM, BELGIQUE
264 2519 VAN DEN DRIESSCHE DIRK 08:16:35:600 E 56 109.71 ZOTTEGEM, BELGIQUE
265 2859 TOUBER RICHARD 08:16:51:000 C 59 109.68 DRIEMOND, Pays-Bas
266 2396 GRAS ERIC 08:16:52:000 D 130 109.68 LA CANOURGUE, FRANCE
267 3676 RUTTEN RUUD THM 08:17:00:000 E 57 109.67 AMSTERDAM, Pays-Bas
268 1701 RAEVEN PIERRE 08:17:14:000 E 58 109.64 BERGT EN TERBLIJT, Pays-Bas
269 126 CLEMANN DENIS 08:17:15:000 E 59 109.64 ST PRIX, FRANCE
270 3772 IAN MORGAN 08:17:17:400 C 60 109.64 BRENTWOOD, Royaume-Uni
271 741 LEFEVER ALAIN 08:17:36:000 D 131 109.60 HEVERLEE, BELGIQUE
272 1099 BLOKS AJM 08:18:04:000 F 12 109.56 HELMOND, Pays-Bas
273 218 DOUETIL MARC 08:18:05:000 D 132 109.55 BESSE SUR BRAYE, FRANCE
274 760 BYSKOV THOMSEN STEEN 08:18:14:000 E 60 109.54 KARLSLUNDE, DANEMARK
276 4025 BENINI FABRIZIO 08:18:32:700 E 61 109.50 FORLI, ITALIE
277 2007 NOAILLON DAVID 08:18:33:000 C 61 109.50 BARBY, FRANCE
278 3811 BONACINA ANTONELLO 08:18:41:000 E 62 109.49 GALBIAT, ITALIE
279 96 BOERSMA HIELKE 08:18:49:000 C 62 109.47 SMILDE, Pays-Bas
280 487 WALTA EDSART 08:18:52:000 C 63 109.47 STIENS, Pays-Bas
281 3477 GRIFFITHS ALAN 08:18:58:000 D 133 109.46 BRISTOL, Royaume-Uni
282 14 CASIMIR IGOR 08:19:09:000 C 64 109.44 NIVOLAS VERMELLE, France
283 75 FOULOUNOUX THIERRY 08:19:09:000 E 63 109.44 PARIS, FRANCE
284 1514 DRUET YVES 08:20:13:000 D 134 109.33 CHALON SUR SAONE, FRANCE
285 1563 VERBEEREN DAVY 08:20:14:300 C 65 109.32 HAALTERT, BELGIQUE
286 1193 VANTIELCKE FREDERIC 08:20:15:800 D 135 109.32 LAVENTIE, FRANCE
287 102 UBERTO GILLES 08:20:16:000 E 64 109.32 VOIRON, FRANCE
288 268 LEONARD CHRISTIAN 08:20:17:000 E 65 109.32 La Hulpe, Belgique
289 1081 COLLARD FREDDY 08:20:18:000 E 66 109.32 ST GEORGES, BELGIQUE
290 1801 BAKKER KLAAS JAN 08:20:19:000 D 136 109.31 GRONINGEN, Pays-Bas
291 642 SONKE ROBERT 08:20:25:000 D 137 109.30 MIDDELBURG, Pays-Bas
292 2071 FIUMALBI PAOLO 08:20:26:400 E 67 109.30 PERIGNANO (PI), ITALIE
293 3046 RASK HENRIK 08:20:27:100 C 66 109.30 AUNING, DANEMARK
294 1991 NOAILLON JEAN-PAUL 08:20:27:200 F 13 109.30 CHALONS EN CHAMPAGNE, FRANCE
295 4407 VAN DEN BOOM STEIJN 08:20:41:000 C 67 109.28 , Pays-Bas
296 4965 KUPER ARJEN 08:20:46:000 C 68 109.27 GRONINGEN, Pays-Bas
297 2426 MENDIA ZUFIRIA JON 08:21:04:000 E 68 109.23 HERNANI, ESPAGNE
298 3529 HOOGZAAD JELMER 08:21:20:000 C 69 109.21 UTRECHT, Pays-Bas
299 4150 DECRUYENAERE FABIEN 08:21:21:000 D 138 109.20 KORTRIJK, BELGIQUE
301 375 DE VRIES MARTIN 08:21:30:000 D 139 109.19 LANDSMEER, Pays-Bas
302 2026 DEPRE IVAN 08:21:37:000 E 70 109.18 ST TRUIDEN, BELGIQUE
303 234 PONS BERNARD 08:21:39:100 D 140 109.17 LUYNES, FRANCE
304 5078 GARCIA ORDONNEZ ALBERTO 08:21:42:000 E 71 109.17 ERANDIO BIZKAIA, ESPAGNE
305 1609 GAUBERT ERIC 08:21:44:000 E 72 109.16 BRECTOUVILLE, FRANCE
306 933 HEEMSKERK JOS 08:21:51:000 E 73 109.15 OUD-ADE, Pays-Bas
307 4237 SCHABOS RENE 08:21:52:000 E 74 109.15 BORNE, Pays-Bas
308 783 SCHUTT JAN 08:21:56:000 D 141 109.14 LYSTRUP, DANEMARK
309 1141 MASCARO ANTONIO 08:22:00:000 E 75 109.14 PALMA (MALLORCA), ESPAGNE
310 2078 BINDA GILLES 08:22:02:500 D 142 109.13 PELOUSEY, FRANCE
311 944 HULZEBOS & ALERS JOHAN & ERWIN 08:22:06:000 D 143 109.12 ZUIDWOLDE, Pays-Bas
312 9 PIRONT J.PIERRE 08:22:07:400 E 76 109.12 LOUVEIGNE, BELGIQUE
313 2554 QUIST HENRIK 08:22:15:000 E 77 109.11 SLANGERUP, DANEMARK
314 3210 CIESIELSKI THOMAS 08:22:20:000 C 70 109.10 WITTERSHEIM, FRANCE
315 1924 BAAS COR 08:22:22:000 E 78 109.10 NES A/D AMSTEL, Pays-Bas
316 4503 HUBAU JOHAN 08:22:22:700 E 79 109.10 RONSE (RENAIX), BELGIQUE
317 168 TERRIER PHILIPPE 08:22:26:600 D 144 109.09 PERONNAS, FRANCE
318 324 DEKREON PIERRE 08:22:27:000 E 80 109.09 RUELISHEIM, FRANCE
319 145 COCHOIS FRANCK 08:22:28:000 E 81 109.09 DORLISHEIM, FRANCE
320 1604 CAMMAERT ANDY 08:22:48:000 C 71 109.05 AALST, BELGIQUE
321 3994 GILLES PATRICK 08:22:49:300 C 72 109.05 PONT DE L ISERE, FRANCE
322 4519 VAN DER PLAATS GERRIT 08:22:57:000 E 82 109.03 ROTTERDAM, Pays-Bas
323 3324 CORNELIS MARC 08:23:00:000 D 145 109.03 GENEVE, SUISSE
324 3621 ROMANI RAFFAELLA 08:23:01:600 A 3 109.03 ASOLA (MN), ITALIE
325 1256 BROCKDORFF JOHANNES LUNDIN 08:23:19:000 D 146 109.00 COPENHAGEN, DANEMARK
326 1274 VAN DER LUER THOMAS 08:23:37:000 C 73 108.96 AMERSFOORT, Pays-Bas
327 9013 NAMUR ADRIEN 08:23:42:400 C 74 108.95 SAINT MARCEL EN DOMBES, FRANCE
328 447 TEN BRINKE ROLAND 08:23:50:000 C 75 108.94 ERMELO, Pays-Bas
329 153 MATHIS ERIC 08:24:00:000 D 147 108.92 CORMEILLE EN PARISIS, FRANCE
330 2350 MIKKELSEN MIKAEL 08:24:09:000 E 83 108.91 VIBORG, DANEMARK
331 3219 THOMAS DAVID 08:24:18:000 D 148 108.89 LEEDS, Royaume-Uni
332 584 WILMINK MARCEL 08:24:25:000 D 149 108.88 WAGENINGEN, Pays-Bas
333 2679 TATTU CHRISTOPHE 08:24:25:900 D 150 108.88 BOULT, FRANCE
334 1104 VELDHUIS REMCO 08:24:39:000 C 76 108.85 HAAKSBERGEN, Pays-Bas
335 1851 KROL EELCO 08:24:49:000 C 77 108.84 DELFT, Pays-Bas
336 1572 DE LOOR JOHAN 08:24:53:000 D 151 108.83 SINT LIEVENS HOUTEM, BELGIQUE
337 1603 VAN BELLINGEN DANNY 08:24:55:300 D 152 108.83 NINOVE POLLARE, BELGIQUE
338 423 RIJS MARCEL 08:25:08:000 D 153 108.80 GRAVE, Pays-Bas
339 3355 VAN DE MOORTELE STEFAAN 08:25:29:000 C 78 108.77 HEVERLEE, BELGIQUE
340 1064 DE LEO ANGELO 08:25:33:000 E 84 108.76 RETINE, BELGIQUE
342 790 HOJ ARNE BREHM 08:25:38:000 E 86 108.75 ESBJERG, DANEMARK
343 1377 SAMOY WOUTER 08:25:38:500 C 79 108.75 BEST, Pays-Bas
344 1187 BIJLEVELD JEROEN 08:25:46:000 D 154 108.73 WEERT, Pays-Bas
345 2737 VAN T SCHIP TON 08:25:52:000 D 155 108.72 NES A/D AMSTEL, Pays-Bas
346 1385 SCHUDDE ROLF 08:25:57:000 D 156 108.72 ZWOLLE, Pays-Bas
347 3023 De Jonge Wouter 08:26:11:000 D 157 108.69 Ouderkerk, Pays-Bas
348 2346 FALLAVENA FEDERICO 08:26:14:000 D 158 108.69 CENTO (FE), ITALIE
349 2910 MAGNELLI FILIPPO 08:27:04:000 D 159 108.60 FIRENZE, ITALIE
350 4243 ENGBERS HENNY 08:27:15:000 F 14 108.58 LONNEKER, Pays-Bas
351 2925 EGELUND NIELS JOERGEN 08:27:16:500 E 87 108.58 TJELE, DANEMARK
352 9060 MAES PETER 08:27:21:000 D 160 108.57 nijlen, BELGIQUE
353 3751 FALCO GIANTUCA 08:27:23:000 C 80 108.56 CUNEO, ITALIE
354 5201 CERQUETTINI DIEGO 08:27:23:000 C 81 108.56 PEVERAGNO (CN), ITALIE
355 3207 FREY DANIEL 08:27:23:100 D 161 108.56 SCHERWILLER, FRANCE
356 512 BAETS JAN 08:27:27:000 E 88 108.56 EINDHOVEN, Pays-Bas
357 2076 MOULIN PAUL 08:27:35:000 E 89 108.54 LOCRONAN, FRANCE
358 1597 VAN DIJK WIJNAND 08:27:57:000 E 90 108.50 WOERDEN, Pays-Bas
359 1628 TORFS RAYMOND 08:28:29:000 E 91 108.44 BRASSCHAAT, BELGIQUE
360 4082 ADRIAENS HAN 08:28:33:000 D 162 108.44 EINDHOVEN, Pays-Bas
361 1207 BETREMIEUX JACKY 08:28:44:000 E 92 108.42 GAP, FRANCE
362 2198 SCALVINI BRUNO 08:28:45:200 D 163 108.42 SAINT JEAN EN ROYANS, FRANCE
363 3051 OUDSHOORN MARCEL 08:28:47:000 D 164 108.41 ZOETERMEER, Pays-Bas
364 3288 DUBRU FABRICE 08:29:10:000 D 165 108.37 BARANZY, BELGIQUE
365 1295 BENOOT RUDI 08:29:12:000 E 93 108.37 BRUXELLES, BELGIQUE
366 3530 Danilo Scaccabarozzi 08:29:13:700 D 166 108.37 Bernareggio (MB), ITALIE
368 770 HOJRUP MICHAEL 08:29:26:000 D 167 108.34 VALLENSBAEK STRAND, DANEMARK
369 1805 BIERMANS RENE 08:29:33:000 C 82 108.33 WOERDEN, Pays-Bas
370 2036 GIHOUL JEAN-LOUIS 08:29:37:000 E 95 108.33 WATERLOO, BELGIQUE
371 230 BERGER WILFRID 08:29:39:500 D 168 108.32 LYON, FRANCE
372 26 PONCET FABIEN 08:29:45:000 C 83 108.31 LYON, FRANCE
373 1226 DE CLERCQ PHILIP 08:29:51:000 D 169 108.30 DERTINGE, BELGIQUE
374 472 VAN DER LOCHT JOOST 08:30:06:000 C 84 108.27 TILBURG, Pays-Bas
375 1332 FILIPPO MEOLI 08:30:06:000 C 85 108.27 PONSACCO PISA, ITALIE
376 1344 MONTAGNANI NICOLA 08:30:07:100 C 86 108.27 PONSACCO (PISA), ITALIE
377 195 NEVERS ROMAIN 08:30:09:500 C 87 108.27 BLACE, FRANCE
378 2812 JONGELING RUDOEF 08:30:17:000 E 96 108.25 WESTZAAM, Pays-Bas
380 1435 VAN DER MEI JAAP 08:30:20:000 E 97 108.25 UTRECHT, Pays-Bas
381 1199 HELMUS PHILIP 08:30:21:700 D 171 108.25 LESSINEN, BELGIQUE
382 1023 PROT JACQUES 08:30:30:000 F 15 108.23 LAIMONT, FRANCE
383 2743 VOCKING PETER 08:30:32:000 D 172 108.23 AMERONGEN, Pays-Bas
384 197 AUDOYE OLIVIER 08:30:38:000 D 173 108.22 AUXERRE, FRANCE
385 2475 ANNEN PATRICK 08:30:45:000 D 174 108.20 VEVEY, SUISSE
386 4854 DUFOUR YANNIK 08:30:52:000 D 175 108.19 BERTRIX, BELGIQUE
387 9091 WILLIATTE HERVE 08:31:07:000 E 98 108.17 LOMPRET, France
388 41 GARNIER FRANCK 08:31:12:000 C 88 108.16 NICE, FRANCE
389 4697 VAN VOOREN STEVEN 08:31:13:300 C 89 108.15 EEKLO, BELGIQUE
390 156 LACOSTE JEAN-LUC 08:31:14:000 E 99 108.15 TAIN-L HERMITAGE, France
391 3957 RAPIN PATRICK 08:31:27:000 F 16 108.13 TAIN L HERMITAGE, FRANCE
392 63 FIORD DAN 08:31:29:000 G 1 108.13 HELSINGE, DANEMARK
393 3839 CARDELLINI IVAN 08:31:43:000 D 176 108.10 USMATE VELATE, ITALIE
394 4870 VERHELLE DANNY 08:31:46:000 E 100 108.10 IZEGEM, BELGIQUE
395 4887 REHORST GERT DICK 08:31:47:900 D 177 108.09 LEIDERDORP, Pays-Bas
396 639 FOKKER LEEN 08:31:49:200 D 178 108.09 UTRECHT, Pays-Bas
397 1619 NGUYEN FRANCK 08:31:51:400 D 179 108.09 SAINT MARTIN LE VINOUX, FRANCE
398 2702 ROEDOE ALEX 08:31:57:000 D 180 108.08 MAASLUIS, Pays-Bas
399 1278 LAZARO MORTE JOAQUIN 08:32:19:000 D 181 108.04 ALTURA, ESPAGNE
400 2257 WEIDEMA RIK 08:32:20:000 E 101 108.03 HUIZEN, Pays-Bas
401 2419 LAJUSTICIA RODRIGUEZ FRANCISCO 08:32:22:000 E 102 108.03 HERNANI (GUIPUZCOA), Espagne
402 1602 VANSCHOONBEEK GUIDO 08:32:23:000 E 103 108.03 Herk-de-Stad, Belgique
403 2766 BARTEN ALEX 08:32:23:400 D 182 108.03 AMSTERDAM, Pays-Bas
404 1949 EIJKELBERG ERIC 08:32:40:000 D 183 108.00 VOORBURG, Pays-Bas
405 2576 RASMUSSEN JACK 08:32:59:000 C 90 107.97 , DANEMARK
406 1627 TORFS PATRICK 08:33:09:000 D 184 107.95 BRASSCHAAT, BELGIQUE
407 1464 VENEMA JOOP 08:33:17:000 E 104 107.93 MADE, Pays-Bas
408 23 MORY SILVERE 08:33:26:000 D 185 107.92 SAINT MARTIN D HERES, France
409 4004 MICHAUD PATRICK 08:33:31:000 D 186 107.91 NIMES, FRANCE
410 2031 LEDRUS DANY 08:33:52:000 E 105 107.87 VISE RICHELLE, BELGIQUE
411 4448 BALS RICHARD 08:33:55:000 D 187 107.87 ROOSENDAAL, Pays-Bas
412 4331 BIEWUND FRAN€OIS 08:33:57:100 E 106 107.86 VIEUWE WETERING, Pays-Bas
413 4007 ARMANGAU FREDERIC 08:34:05:000 D 188 107.85 DONZY LE NATIONAL, France
414 3365 RUEDIN XAVIER 08:34:06:000 E 107 107.85 ST GENIS LES OLLIERES, FRANCE
415 952 JOINKING RONALD 08:34:09:000 E 108 107.84 PURMEREND, Pays-Bas
416 5151 HANS CHRISTIAN HANSEN 08:34:19:000 D 189 107.82 BORKOP, DANEMARK
417 935 HERMANS PETER 08:34:20:000 D 190 107.82 RAVENSTEIN, Pays-Bas
418 4546 STOKS FREDDY 08:34:45:000 D 191 107.78 ANTWERPEN, BELGIQUE
419 1973 KERKHOF ROEL 08:34:47:000 D 192 107.78 GRONINGEN, Pays-Bas
420 4095 BILLON ETIENNE 08:34:56:000 D 193 107.76 LA MURE, FRANCE
421 2705 ROORDA WYBE 08:34:57:400 E 109 107.76 REUVER, Pays-Bas
422 4136 MARTENS LUC 08:34:58:000 D 194 107.75 GEEL, BELGIQUE
423 2955 TACHE LAURENT 08:35:00:000 C 91 107.75 GRANDVAUX, SUISSE
424 1218 VAN RENTERGEM ALAIN 08:35:04:000 D 195 107.74 DESTELBERGEN, BELGIQUE
425 661 GREIDANUS KEES 08:35:28:000 E 110 107.70 BILTHOVEN, Pays-Bas
426 1819 DE WIT WALTER 08:35:28:000 D 196 107.70 UTRECHT, Pays-Bas
427 2881 VIJVERBERG ARJAN 08:35:28:700 D 197 107.70 SPIJKENISSE, Pays-Bas
428 608 UITHAM MAX 08:35:29:000 E 111 107.70 LEUTINGEWOLDE, Pays-Bas
429 2665 CHAILLOUX REGIS 08:35:30:000 E 112 107.70 ROSNY SOUS BOIS, FRANCE
430 2412 VAN WEEL DENIS 08:35:40:000 D 198 107.68 NIEUW VENNEP, Pays-Bas
431 1689 BOSCH ERIC-JAN 08:35:41:700 E 113 107.68 AMSTELVEEN, Pays-Bas
432 1369 REEBERG RICARDO 08:35:44:000 E 114 107.67 PURMEREND, Pays-Bas
433 3015 FINET OLIVIER 08:35:44:900 C 92 107.67 SAINT BERNARD DU TOUVET, FRANCE
434 3346 MARITAN SERGIO 08:35:45:900 E 115 107.67 ROCCABRUNA, ITALIE
435 1061 VAN ROOY FRANCK 08:35:56:000 E 116 107.65 EINDHOVEN, Pays-Bas
436 950 JANISSEN MARK 08:36:03:000 D 199 107.64 NEER, Pays-Bas
437 3039 DE MAAR JACOB 08:36:05:000 E 117 107.64 CASTRICUM, Pays-Bas
438 1605 MAUND TRACEY 08:36:08:000 A 4 107.63 CHELTENHAM, Royaume-Uni
439 1676 PAUL BERNARD 08:36:44:000 E 118 107.57 GENAPPE, BELGIQUE
440 173 VINIT ANDRE 08:37:03:000 E 119 107.53 MEYLAN, FRANCE
441 1564 VERBEEREN ETIENNE 08:37:06:000 E 120 107.53 HELDERGEN, BELGIQUE
442 1613 MIARD FREDERIC 08:37:06:700 D 200 107.53 LA VALETTE DU VAR, FRANCE
443 3978 PASQUIOU FABRICE 08:37:30:000 E 121 107.48 SEYSSINET PARISET, FRANCE
444 502 VAN ARRAGON WILLEM 08:37:31:000 F 17 107.48 DIEREN, Pays-Bas
445 1769 KOOLWIJK REIN JAN 08:37:34:000 D 201 107.48 DELFT, Pays-Bas
446 3976 TAILLAND PHILIPPE 08:37:37:000 D 202 107.47 MONTELIMAR, FRANCE
447 3209 LETSCHER ETIENNE 08:37:40:000 E 122 107.47 HAGUENAU, FRANCE
448 4989 CLAES FRANS 08:37:49:000 C 93 107.45 HEVERLEE, BELGIQUE
449 1544 VAN HOOFF MICHEL 08:38:13:000 D 203 107.41 GEMERT, Pays-Bas
450 5185 LEONARD EDDY 08:38:23:000 C 94 107.39 BOURG D OISANS, FRANCE
452 536 DEN DIKKEN ALEXANDER 08:38:25:000 C 95 107.39 NIJKERK, Pays-bas
453 1963 JACOBS RONNY 08:38:27:000 D 204 107.38 ARNHEM, Pays-Bas
454 2545 DI GLERIA OLIVIER 08:38:27:500 C 96 107.38 CHEVENOZ, FRANCE
455 2851 SNIJDER ROELOF 08:38:28:000 F 18 107.38 HEEMSKERK, Pays-Bas
456 1020 BOSTOEN DIDIER 08:38:29:000 D 205 107.38 KORTRIJK, BELGIQUE
457 2305 RAVEN HANS 08:38:30:000 D 206 107.38 HADERWIJK, Pays-Bas
458 2584 HANSEN EJVIND 08:38:36:000 F 19 107.37 LEJRE, DANEMARK
459 3854 BULLION JULIEN 08:38:54:000 C 97 107.34 LYON, FRANCE
460 2923 LETEN TONY 08:38:55:000 D 207 107.33 HELCHTEREN, Belgique
461 1122 BULCKAERT MARIO 08:38:57:000 D 208 107.33 Roeselare, Belgique
462 1087 SANCHIS CALABUIG CARLOS 08:39:02:000 C 98 107.32 XATIVA, ESPAGNE
463 4688 GARCIA-WITT RAMON 08:39:09:000 D 209 107.31 MIRANDA DE EBRO, ESPAGNE
464 864 BIERMANS JEAN 08:39:16:000 C 99 107.30 MAASTRICHT, Pays-Bas
465 839 HEROLD PETER 08:39:23:100 D 210 107.28 ROMA, ITALIE
466 4406 VAN GESTEL ROB 08:39:24:800 C 100 107.28 NUENEN, Pays-Bas
467 4051 LONGIN RENE 08:39:42:000 F 20 107.25 CUBLIZE, FRANCE
468 2721 VAN ALEM PATRICK 08:39:43:600 D 211 107.25 EINDHOVEN, Pays-Bas
469 3317 LUCAZ OLIVIER 08:39:49:000 D 212 107.24 GENEVE, SUISSE
470 1086 CHAPARRO GOMEZ JOSE 08:39:56:000 E 124 107.23 RAFELBUNOL VALENCIA, ESPAGNE
471 1398 SNOEREN RENE 08:39:58:000 D 213 107.22 KAATSHEUVEL, Pays-Bas
472 3419 FROPPIER DENIS 08:40:45:000 D 214 107.14 FEILLENS, FRANCE
473 4863 FERGUSSON KEN 08:40:56:000 E 125 107.12 ANTWERPEN, BELGIQUE
474 1441 VAN EIG JOOST 08:41:08:000 C 101 107.10 KAATSHEUVEL, Pays-Bas
475 1585 LEIJNSE HANS 08:41:17:000 E 126 107.08 AMSTELVEEN, Pays-Bas
476 3876 SILVESTRE LAURENT 08:41:27:000 D 215 107.06 NIMES, FRANCE
477 4942 CREUWELS JEF 08:41:29:000 E 127 107.06 EIJSDEN, Pays-Bas
478 4643 SCHREITER PAWEL 08:41:35:000 D 216 107.05 ZIELONA GORA, 28
479 3470 JANSE JOHNNY 08:41:53:000 D 217 107.02 RENESSE, Pays-bas
480 3079 BRAY JULIAN 08:41:54:000 D 218 107.02 LONDRES, Royaume-Uni
481 9033 CHAUDIER MARTINE 08:41:55:900 A 5 107.02 CHAVANNES, FRANCE
482 861 BEENAERTS JAN 08:42:04:000 D 219 107.00 BALEN, BELGIQUE
483 2046 PEETERS GUSTAAF 08:42:13:000 F 21 106.98 WEZEMAAL, BELGIQUE
484 2035 GODEFROID PHILIPPE 08:42:19:000 D 220 106.97 PETIT-ROEULX-KZ-BRAIN, BELGIQUE
485 1740 DE CRAENE GINO 08:42:21:000 E 128 106.97 WAARSCHOOT, BELGIQUE
486 4627 SCHOUTEN JOHN 08:42:22:800 E 129 106.97 PURMEREND, Pays-Bas
487 965 KOEMANS THOMAS 08:42:27:000 D 221 106.96 ROTTERDAM, Pays-Bas
488 452 TOLENAAR JORIS 08:42:27:100 C 102 106.96 LEIDEN, Pays-Bas
489 124 STEYER VINCENT 08:42:36:000 D 222 106.94 MUTZIG, FRANCE
490 875 BOLSENBROEK MAURICE 08:42:53:000 C 103 106.91 APELDOORN, Pays-Bas
491 667 OOSTERMAN PETER 08:43:00:000 E 130 106.90 NOOTDORP, Pays-Bas
492 436 SIJEN JOS 08:43:03:700 F 22 106.89 MAASTRICHT, Pays-Bas
494 2631 MEULDERS RAYMOND 08:43:06:000 F 23 106.89 TURNHOUT, BELGIQUE
495 1264 NICANOR LIBEROS 08:43:07:000 D 223 106.89 , ESPAGNE
496 2485 GOOVAERTS RONNY 08:43:15:000 E 131 106.87 MEEUWEN, BELGIQUE
497 9101 SENDEN WIEL 08:43:18:400 F 24 106.87 ROTTERDAM, Pays-bas
498 2446 MERENCIANO MARTINEZ JOSEJUAN 08:43:30:000 D 224 106.85 ALFAFAR VALENCIA, ESPAGNE
499 1117 LORENT RAYMOND 08:43:30:800 E 132 106.85 LIEGE, BELGIQUE
500 2970 FLORES-PEREILA MIGUEL-ANGEL 08:43:36:000 C 104 106.84 RONDA, ESPAGNE
501 563 DE BRUIJN HERMAN 08:43:38:000 D 225 106.83 ETTEN LEUR, Pays-Bas
502 973 KUIJK ANDRE 08:43:42:000 E 133 106.83 GEERTRUIDENBERG, Pays-Bas
503 1364 PRINSEN AD 08:43:42:600 E 134 106.83 GEERTRUIDENBERG, Pays-Bas
504 543 VAN VEEN GERARD 08:43:48:000 E 135 106.81 NOORDWIJK, Pays-Bas
505 2477 VAN ROMPAY MARC 08:43:59:000 D 226 106.80 SCHILDE, BELGIQUE
506 1269 RAEYMAEKERS JAN 08:44:17:000 E 136 106.76 VOSSELAAR, BELGIQUE
507 2589 RIIS JESPER 08:44:19:000 C 105 106.76 SLANGERUP, DANEMARK
508 618 BECKERS GUUS 08:44:23:000 E 137 106.75 NIEUWERKERK A/D LJSSEL, Pays-Bas
509 2877 VAN ZANDBEEK MART 08:44:33:000 C 106 106.73 HEESWIJK DINTHER, Pays-Bas
510 1041 LAUERSEN IB MOENSTER 08:44:40:000 E 138 106.72 Hornslet, Danemark
511 872 BOERSMA FOLKERT 08:44:44:000 D 227 106.72 UTRECHT, Pays-Bas
512 1181 MARTIN PAUL 08:44:54:000 E 139 106.70 BRENTWOOD ESSEX, Royaume-Uni
513 3232 CAPRA SEBASTIEN 08:44:56:000 C 107 106.69 ALBERTVILLE, FRANCE
514 1267 MERMANS LUC 08:45:03:000 D 228 106.68 ARENDONK, BELGIQUE
516 2228 JACQUET ANDRE 08:45:41:000 E 140 106.61 ARNAS, FRANCE
517 3490 CHRISTENSEN ULRIK 08:45:42:000 E 141 106.61 LYNGBY, DANEMARK
518 3491 CHRISTENSEN KENT 08:45:44:000 G 2 106.61 LYNGBY, DANEMARK
519 328 BROUWER JOANNE 08:45:46:000 B 3 106.61 AMSTERDAM, Pays-Bas
520 1270 WILLEMSENS RITA 08:45:49:000 B 4 106.60 VOSSELAAR, BELGIQUE
521 3107 VACCARI PAOLO 08:45:57:000 F 25 106.59 LUCA, ITALIE
522 4878 VAN DER KLAAUW BAS 08:46:03:000 C 108 106.58 LEIDEN, Pays-Bas
523 1975 KIMMELS ARTHUR 08:46:26:000 D 229 106.53 ARNHEM, Pays-Bas
524 1886 TEN HOF HARMEN 08:46:40:000 E 142 106.51 ASSEN, Pays-Bas
525 1550 SNIJDERS RIEN 08:47:00:000 F 26 106.47 GEMERT, Pays-Bas
526 4330 EIKELENBOOM SIMON 08:47:20:000 E 143 106.44 KOUDEKERK AAN DEN RIJN, Pays-Bas
527 3156 CHASPOUL PATRICK 08:47:21:100 E 144 106.44 CLERMONT FERRAND, FRANCE
528 758 MOL JAN 08:47:24:000 C 109 106.43 LEIDEN, Pays-Bas
529 1559 RUTTEN TIMMY 08:47:28:000 C 110 106.42 HAM, BELGIQUE
530 1114 HAERDEN JEAN PIERRE 08:47:30:800 E 145 106.42 AMAY, BELGIQUE
531 210 BOURREAU JACQUES 08:47:40:000 E 146 106.40 COGOLIN, France
532 211 BATTISTI ERIC 08:47:40:000 E 147 106.40 COGOLIN, FRANCE
533 2111 VAN DEN ENDE PETER 08:47:40:000 E 148 106.40 NAALDWIJK, Pays-Bas
534 5162 DEKKER ROGIER 08:47:50:000 C 111 106.39 NOORDWIJK AANZEE, Pays-Bas
535 2968 SOROLDONI MARCO 08:47:52:600 D 230 106.38 CASTANO PRIMO, ITALIE
536 2529 RAZIER GERALD 08:47:58:000 E 149 106.37 ASSAS, FRANCE
537 5087 COMPAN J.BAPTISTE 08:47:58:000 F 27 106.37 MONTPELLIER, FRANCE
538 3146 ROUQUETTE J.LOUIS 08:47:58:600 E 150 106.37 VAILHAUQUES, FRANCE
539 3939 VAN DIJK HANS 08:47:59:300 D 231 106.37 BOEKEL, Pays-Bas
540 3729 BORST MARTIJN 08:48:00:000 C 112 106.37 ZOETERMEER, Pays-Bas
541 1438 VAN DIJKEN JAN 08:48:02:000 E 151 106.36 SMILDE, Pays-Bas
542 1824 FLORIS MARCEL 08:48:07:000 D 232 106.36 BORNE, Pays-Bas
543 5274 JAVOUREZ JEAN YVES 08:48:12:000 E 152 106.35 PERRIGNY, FRANCE
544 4086 KRAAYLANGER SJEF 08:48:13:000 E 153 106.34 SINT OEDENRODE, Pays-Bas
545 4686 ALVAREZ PENA PEDRO ANTONIO 08:48:15:000 E 154 106.34 MIRANDA DE EBRO, ESPAGNE
546 1884 TE BOEKHORST WANDER 08:48:29:000 C 113 106.32 GAANDEREN, Pays-Bas
547 1415 VAN EEDEN JOHAN 08:48:34:000 D 233 106.31 DELFT, Pays-Bas
548 3687 MASSAUD RICHARD 08:48:35:000 D 234 106.31 VILLEJUIF, FRANCE
549 2299 BARRETO FRANCISCO 08:48:37:000 E 155 106.30 JARRIE, FRANCE
550 3528 BARATELLA FAUSTO 08:48:45:000 D 235 106.29 VIGLIANO BIELLESE, ITALIE
551 9092 SOULIE J.YVES 08:48:46:000 D 236 106.29 LE THOLONET, FRANCE
552 9001 RUSSIAS JACQUES 08:48:54:000 F 28 106.27 AMBERT, France
553 35 MIRANDA EDITH 08:48:57:000 A 6 106.27 ST BERNARD DU TOUVET, FRANCE
554 589 HERIJGERS LEO 08:48:58:600 D 237 106.26 RIJSBERGEN, Pays-Bas
555 3958 CROCHET PATRICK 08:49:10:000 E 156 106.24 TOURNON, FRANCE
556 3619 SAGRADINI SILVANO 08:49:21:000 E 157 106.22 FORLI, ITALIE
557 4146 BLOEMENDAAL MARCO 08:49:25:900 C 114 106.22 HILVERSUM, Pays-Bas
558 2445 FABRA CARRERO JOSE 08:49:30:000 E 158 106.21 ALFAFAR, ESPAGNE
559 4514 VERBRUGGEN JOERI 08:49:34:000 D 238 106.20 MELSELE, BELGIQUE
560 4728 VERBOCHT HANS 08:49:37:000 C 115 106.19 BARNEVELD, Pays-Bas
561 3285 FRERES JOSEPH 08:49:43:000 E 159 106.19 VIELSALM, BELGIQUE
562 4472 VIOLLE ERIC 08:49:43:400 D 239 106.19 HERVE, BELGIQUE
563 3759 ROUGEOT HERVE 08:49:53:000 D 240 106.17 ST MAURICE DE BEYNOST, FRANCE
564 2341 RUIJGROK LEO 08:49:55:500 E 160 106.16 DEN HOORN, Pays-Bas
565 9025 BAYARD BRUNO 08:50:01:000 E 161 106.15 ST VICTOR SUR LOIRE, FRANCE
566 1596 HOGENDOORN JOHAN 08:50:09:000 D 241 106.14 WOERDEN, Pays-Bas
567 453 VAN BERGEN CEES 08:50:10:800 E 162 106.14 WORMERVEER, Pays-Bas
568 1569 MORY PATRICK 08:50:11:000 E 163 106.14 HERZELE, BELGIQUE
569 1404 STALS JOS 08:50:12:000 F 29 106.13 HAARLEM, Pays-Bas
570 1571 VAN BRANTEGEM MARC 08:50:13:000 E 164 106.13 HERZELE, Belgique
571 4832 HOEKSTRA PIET 08:50:32:000 E 165 106.10 COTHEN, Pays-Bas
572 5097 WIERTZ JOHAN 08:50:52:000 D 242 106.06 VOEREN, BELGIQUE
573 650 KNOPPERT NICO 08:50:53:000 E 166 106.06 PUTTEN, Pays-Bas
574 28 WIETKIN ARTHUR 08:50:55:000 F 30 106.06 NASSOGNE, BELGIQUE
575 5256 PINHEIRO CARLOS 08:51:05:000 E 167 106.04 BAR LE DUC, FRANCE
576 1477 VOORNEVELD REINARD 08:51:07:000 D 243 106.03 HOOFDORP, Pays-Bas
577 4065 DEWOLFS JOSEF 08:51:24:000 E 168 106.00 LANDEN, BELGIQUE
578 1238 VAN DEN OUTENAAR PETER 08:51:25:900 E 169 106.00 WESTZAAN, Pays-Bas
579 1082 AGNELLO GIOVANNI 08:51:35:000 E 170 105.99 LIEGE, BELGIQUE
580 1201 SCHEIRLINCKX JOZEF 08:51:42:000 F 31 105.97 NINOVE, BELGIQUE
581 4794 DE WAARD RICHARD 08:51:43:000 D 244 105.97 AMSTERDAM, Pays-Bas
582 3620 VISIERI SAILARO 08:51:49:000 F 32 105.96 ASOLA (MN), ITALIE
583 39 LAUNAY MICHEL 08:51:51:500 G 3 105.96 CHEVREUSE, FRANCE
584 3951 TREVISAN MARCEL 08:51:52:000 E 171 105.96 SAINT LAURENT DU PONT, FRANCE
585 4565 VERSTRAETEN HERMAN 08:52:00:000 D 245 105.94 MELSELE, BELGIQUE
586 967 CAIRNS EVERT 08:52:15:000 D 246 105.92 DEN HAAG, Pays-Bas
587 2615 LEDIN GILLES 08:52:16:000 D 247 105.91 VALLEIRY, FRANCE
588 2442 GALLOT HENRI 08:52:21:000 E 172 105.90 SORBIERS, FRANCE
589 3198 VAN GANSBEKE GEERT 08:52:23:000 D 248 105.90 DEINZE, BELGIQUE
590 1341 VAN HOOREBEECK WILLY 08:52:24:300 E 173 105.90 WOLVERTEM, BELGIQUE
591 4453 ROEKEN JOHAN 08:52:29:000 D 249 105.89 ROOSENDAAL, Pays-Bas
592 711 PEPINO SAMUEL 08:52:42:000 D 250 105.87 SARCEY, France
593 391 HEINEN OBBE 08:52:44:000 D 251 105.86 DENHAAG, Pays-Bas
594 410 LIEBREGTS THEO 08:52:52:000 E 174 105.85 OOSTELBBEERS, Pays-Bas
595 2225 PESCHOT FRANCIS 08:52:55:000 C 116 105.84 CORBREUSE, FRANCE
596 2194 SCHRAVERUS MARC 08:53:14:000 D 252 105.81 HARDERWIJK, Pays-Bas
597 5215 PRODANU DANIEL 08:53:17:000 E 175 105.81 SAINT JUST, FRANCE
598 2817 KERKHOF BART 08:53:23:000 C 117 105.79 BEUNINGEN, Pays-Bas
599 1933 CLOWTING RON 08:53:24:000 D 253 105.79 SLOOTDORP, Pays-Bas
600 1165 RENUART THOMAS 08:53:31:000 C 118 105.78 ARQUENNES, BELGIQUE
601 3200 VAN KERCKHOVEN DANY 08:53:32:000 E 176 105.78 LUMMEN, BELGIQUE
602 1649 ENGELVAART LEENDERT 08:53:37:000 D 254 105.77 CAPELLE A/D IJSSEL, Pays-Bas
603 2263 CHICHOUX DIDIER 08:53:39:600 E 177 105.77 MONTAGNAT, FRANCE
604 155 TRIOLO PHILIPPE 08:53:43:000 E 178 105.76 LA TOUR DE SALVAGNY, FRANCE
605 4628 VAN DE GRIENDT HANS 08:53:46:000 E 179 105.75 DRUNEN, Pays-Bas
606 9065 DAMEN MATTIJS 08:53:52:000 C 119 105.74 VENOSC, FRANCE
607 1532 DECRICK RUDY 08:54:02:000 C 120 105.72 HERNE, BELGIQUE
608 89 FERRERE GERARD 08:54:07:000 F 33 105.72 ECHIROLLES, FRANCE
609 3812 BONACINA FRANCO 08:54:38:000 F 34 105.66 , ITALIE
610 1682 SANGRA PAVIA ANTONI 08:54:40:700 E 180 105.66 ORDINO, 25
611 1672 ABDON VICH ALVAREZ 08:54:47:000 C 121 105.64 SON FERRIOL - PALMA DE MALLORCA, ESPAGNE
612 4003 GIRAUDO EDILIO 08:54:49:900 E 181 105.64 ROCCAVIOME, ITALIE
613 4001 BALLATORE ANTONIO 08:54:50:000 D 255 105.64 ROCCAULONE, ITALIE
614 4851 VAN DEN WIJDEVEN PETER MARINUS 08:54:54:000 D 256 105.63 SCHIJNDEL, Pays-Bas
615 926 HAAIJER WILFRIED 08:54:56:000 D 257 105.63 STEDUM, Pays-Bas
616 836 VAN HOOSTE WIM 08:55:09:000 D 258 105.61 STEKENE, BELGIQUE
617 2659 NOEL FREDERIC 08:55:09:800 D 259 105.61 ST AGREVE, FRANCE
618 2767 BLAKBORN WILLEM 08:55:11:000 D 260 105.60 DRIEMOND, Pays-Bas
619 1918 VOS GERARD 08:55:25:000 F 35 105.58 DALEN, Pays-Bas
620 4510 VORSSELMANS WALTERE 08:55:41:000 D 261 105.55 MEER, BELGIQUE
621 3538 PERICAS CASALS MARC 08:55:42:800 C 122 105.55 TONA, ESPAGNE
623 1470 VERRESEN TOSCA 08:55:52:000 A 7 105.53 ALKMAAR, Pays-Bas
624 4057 VAN REETH WEKING 08:55:54:000 C 123 105.53 KALMTOUT, BELGIQUE
625 2773 CLEIJS DIRK 08:55:56:000 D 262 105.52 KRUIBEKE, BELGIQUE
626 483 VERSCHAEVE BART 08:55:58:000 D 263 105.52 GENT, BELGIQUE
627 607 HOFMAN RON 08:56:00:000 D 264 105.52 GRONINGEN, Pays-Bas
628 198 VAISSIERE MARC 08:56:05:600 E 183 105.51 POURRIERES, FRANCE
629 4383 MASSEURS ARTHUR 08:56:11:000 D 265 105.50 ST WILLEBRORD, Pays-Bas
630 1533 DECIA FABRIZIO 08:56:14:600 D 266 105.49 CENGIO, ITALIE
631 183 LE RAZANET PASCAL 08:56:26:000 D 267 105.47 OMERVILLE, FRANCE
632 2157 VAN DAMME BART 08:57:04:000 C 124 105.40 LOKEREN, Belgique
633 5135 QUAK MARTIJN 08:57:05:000 D 268 105.40 VINKEVEEN, Pays-Bas
634 424 ROBIJN TOM 08:57:08:000 C 125 105.39 TILBURG, Pays-Bas
635 1427 VAN DEN BERSSELAAR MARTIJN 08:57:08:000 D 269 105.39 HEEZE, Pays-Bas
636 2926 CASELLI LORIS 08:57:24:000 E 184 105.37 REGGIO EMILIA, ITALIE
637 3575 PEETERS GIJS 08:57:24:600 D 270 105.37 HAACHT, BELGIQUE
638 3523 BOUVIER RICHARD 08:57:41:000 D 271 105.34 THONES, FRANCE
639 167 TABARET DOMINIQUE 08:57:44:000 F 36 105.33 VERNIOZ, France
640 3961 PACHOT STEPHANE 08:57:57:000 E 185 105.31 LE VAL ST GERMAIN, FRANCE
641 3685 BAILLY PHILIPPE 08:58:00:000 D 272 105.30 CREUTZWALD, FRANCE
642 1115 KRUITHOF PETER 08:58:07:000 D 273 105.29 DEN HAAG, Pays-Bas
643 311 MAIGRET PHILIPPE 08:58:22:000 D 274 105.26 DECINES, France
644 2613 DUPAQUIER ROLAND 08:58:24:100 F 37 105.26 SAVIGNY LE SEC, FRANCE
645 1452 VAN OORSCHOT MARK 08:58:31:000 E 186 105.25 UTRECHT, Pays-Bas
646 5094 MOGENSEN ANDERS 08:58:31:000 D 275 105.25 LA CALA DE MIJAS, ESPAGNE
647 2244 LECOEUR PATRICK 08:58:33:000 F 38 105.24 CHANU, FRANCE
648 2321 BOTTARO ANTONIO 08:58:33:000 E 187 105.24 GENOVA PEGLI, ITALIE
649 3553 VAN DEN BROECK RUDY 08:58:40:000 E 188 105.23 KASTERLEE, BELGIQUE
650 829 VANSTEENVOORT WIM 08:58:43:000 D 276 105.23 Tienen, Belgique
651 882 DAEMEN PATRICK 08:58:43:000 D 277 105.23 GELEEN, Pays-Bas
652 3043 CHRISTIANSEN KELD 08:58:46:000 E 189 105.22 ROENDE, DANEMARK
653 3134 ORIOL RADUA 08:58:46:000 C 126 105.22 , FRANCE
654 207 DELACROIX CHRISTIAN 08:58:48:900 F 39 105.22 ST PAUL TROIS CHATEAUX, FRANCE
655 1174 RASMUSSEN KENNETH 08:59:01:000 C 127 105.19 FREDERIKSBERG, DANEMARK
656 5288 REINAUDO CHRISTIAN 08:59:02:100 E 190 105.19 CHARAVINES, FRANCE
657 3484 KNUDSEN JAN 08:59:21:000 E 191 105.16 HASLEV, DANEMARK
658 4498 SMITS ERIC 08:59:24:000 D 278 105.15 NIEUWERKENK A.D. IJSSEL, Pays-Bas
659 318 GRANDCLEMENT FRANCOIS 08:59:36:000 E 192 105.13 LA PESSE, FRANCE
660 936 HOFMAN REMCO 08:59:42:000 D 279 105.12 HEEMSTEDE, Pays-Bas
661 3891 THOMASSON CHRISTOPHE 09:00:00:000 D 280 105.09 CIVRIEUX, FRANCE
662 1765 GOUACHE NICOLAS 09:00:01:200 C 128 105.09 BOIS D'ARCY, FRANCE
663 2316 WILHELM OLIVIER 09:00:07:000 E 193 105.08 VILLENEUVE LA GARENNE, FRANCE
664 3481 WIXON STEVE 09:00:09:000 E 194 105.07 BRISTOL, Royaume-Uni
665 9044 POUTOT FRANCIS 09:00:19:000 D 281 105.06 BOURG D OISANS, France
666 2393 MASSET FRANCIS 09:00:35:000 F 40 105.03 FERE CHAMPENOISE, FRANCE
667 441 SMIT KEES 09:00:36:500 E 195 105.03 DEN HAAG, Pays-Bas
668 2233 AMSTUTZ ERIC 09:00:42:000 C 129 105.02 YVERDON LES BAINS, SUISSE
669 1859 LINNEMANN JOOST 09:00:45:000 D 282 105.01 Haarlem, Pays-Bas
670 1633 DIELS GUY 09:00:54:000 F 41 104.99 POEDERLEE, BELGIQUE
671 1402 SPAANS PIETER 09:00:57:000 F 42 104.99 MONSTER, Pays-bas
672 4054 FOURNIER FRANCK 09:00:58:000 D 283 104.99 IRIGNY, FRANCE
673 3388 BOUDIN CHRISTOPHE 09:01:13:000 D 284 104.96 MEYTHET, FRANCE
674 2821 KOOP TON 09:01:18:000 E 196 104.95 ZWOLLE, Pays-Bas
675 1409 SWART REIN 09:01:22:000 E 197 104.94 ALKMAAR, Pays-Bas
676 3610 KIESTRA JEROEN 09:01:22:000 D 285 104.94 ENSCHEDE, Pays-Bas
677 1186 COLLIGNON RICHARD 09:01:23:000 D 286 104.94 FRASSENM (ARLON), BELGIQUE
678 2011 VAN LAETHEM TOM 09:01:26:000 C 130 104.94 Sint-Lievens-Houtem, Belgique
679 756 HENDRIKS ROB 09:01:30:000 D 287 104.93 EINDHOVEN, Pays-Bas
680 2830 LOOMS ALAN 09:01:31:000 D 288 104.93 EEXT, Pays-Bas
682 1119 TEN BRINKE GERRIT 09:01:47:000 F 43 104.90 PEIZE, Pays-Bas
683 1617 BRUETON MARCUS 09:01:58:000 D 289 104.88 RELGATE SURREY, Royaume-Uni
684 1191 NIJSSEN BABETTE 09:02:00:000 A 8 104.88 HAARLEM, Pays-Bas
685 2210 BACONNIER MARC 09:02:12:000 E 199 104.86 ST GENIS LES OLLIERES, FRANCE
686 2993 DROUIN JEROME 09:02:12:000 D 290 104.86 VILLEPINTE, FRANCE
687 2135 MICHEL JOCELYN 09:02:16:000 C 131 104.85 VALS PRE LE PUY, FRANCE
688 1307 NIELSEN FINN 09:02:20:000 F 44 104.84 LOSNING, DANEMARK
689 253 SANTOS NEBOT MIGUEL ANGEL 09:02:22:000 C 132 104.84 CALA BONA (MALLORCA), ESPAGNE
690 2920 CHALAYE LAURENT 09:02:26:000 D 291 104.83 LA CRAU, FRANCE
691 3052 BUDDINGH JACK 09:02:35:000 E 200 104.81 ZAANDAN, Pays-Bas
692 3430 ROUAIX GERALD 09:02:38:000 D 292 104.81 REYRIEUX, FRANCE
693 1804 BIERMANS JEROEN 09:02:51:000 C 133 104.79 WOERDEN, Pays-Bas
694 595 VAN DER BIJL PAUL 09:03:00:000 D 293 104.77 GOUDA, Pays-Bas
695 2113 RONDA PAUL 09:03:16:000 E 201 104.74 Maastricht, Pays-Bas
696 2421 IRAZUSTA OLAIZOLA ALVARO 09:03:17:000 D 294 104.74 SAN SEBASTIAN, ESPAGNE
697 5222 BENEDICTO IZQUIERDO ANTONIO 09:03:18:000 D 295 104.74 ST ESTEVE SESROUIRES (BARCELONA), ESPAGNE
698 4904 TERMOTE THOMAS 09:03:29:000 C 134 104.72 MOORSELE, BELGIQUE
699 1076 SCHALKWIJK HANNES 09:03:34:000 C 135 104.71 WIJHE, Pays-Bas
700 5086 CREMERS DIRK 09:03:58:000 E 202 104.67 AS, BELGIQUE
701 3649 SCHEYDER ANDRE 09:03:58:900 E 203 104.67 ESCHAU, FRANCE
702 3323 BRUYNSEELS RUDY 09:04:06:000 D 296 104.65 WESTERLO, BELGIQUE
703 5302 TARDY JEAN LUC 09:04:07:800 E 204 104.65 YSSINGEAUX, FRANCE
704 2604 GRAFF CARSTEN 09:04:11:000 D 297 104.64 ALBERTSLUND, DANEMARK
705 4935 HOLZKEN HUIB 09:04:11:000 D 298 104.64 WEERT, Pays-Bas
706 1168 DE BOER HARRIE RENSO 09:04:16:000 F 45 104.64 GRONINGEN, Pays-Bas
707 1362 POST RYAN 09:04:23:000 D 299 104.62 KAATSHEUVEL, Pays-Bas
708 4985 DE VRIES DINUS 09:04:24:000 D 300 104.62 UTRECHT, Pays-Bas
709 830 TIMMERMANS WIM 09:04:25:000 E 205 104.62 HOUTHALEN-HELCHTEREN, Belgique
710 2087 HERNANDEZ ANTONIO 09:04:30:000 D 301 104.61 SEMUR EN AUXOIS, FRANCE
711 1614 PETERSEN FRED 09:04:32:400 E 206 104.61 CAPELLE A/D IJSSEL, Pays-Bas
712 1644 GOEDENDORP HARRY 09:04:32:900 F 46 104.61 GOUDERAK, Pays-Bas
713 316 COMPERNOLLE FREDDY 09:04:41:000 E 207 104.59 OOSTDUINKERKE, BELGIQUE
714 215 WINANDY JEAN FRANCOIS 09:04:50:000 E 208 104.58 FLORIFFOUX, Belgique
715 2465 TACK LODEWIJK 09:04:56:000 F 47 104.56 LEMBEKE, BELGIQUE
716 709 VANSANTVOORT JEAN-MARIE 09:04:59:000 E 209 104.56 XHENDREMAEL, BELGIQUE
717 190 COSSUTTA JACQUES 09:05:01:000 C 136 104.56 VILLEURBANNE, FRANCE
718 2577 OLSEN TIM 09:05:01:000 C 137 104.56 TAASTRUP, DANEMARK
719 3063 TEULING RYAN 09:05:01:000 C 138 104.56 WAGENINGEN, Pays-Bas
720 1239 DICKELE RIK 09:05:03:000 E 210 104.55 LICHTERVELDE, BELGIQUE
721 4879 HELDERMAN KEES 09:05:09:000 E 211 104.54 NEDERWEERT, Pays-Bas
722 1680 CORONADO ORTIZ PEDRO 09:05:11:400 E 212 104.54 VALENCIA, ESPAGNE
723 1679 LLORCA LLORCA FRANSCISCO 09:05:11:500 F 48 104.54 VALENCIA, ESPAGNE
724 838 COUN GERT 09:05:16:000 D 302 104.53 KORTESSEM WINTERSHOVEN, BELGIQUE
725 2726 VAN DER MAST HENK 09:05:17:300 E 213 104.53 RUINERWOLD, Pays-Bas
726 4297 ROTMAN GERRIT 09:05:23:000 E 214 104.52 WILSUM, Pays-Bas
727 3886 BEAUFILS CHRISTOPHE 09:05:27:000 D 303 104.51 SASSENAY, FRANCE
728 4940 STRAUER BERRY 09:05:30:000 E 215 104.50 LEIDEN, Pays-Bas
729 431 SCHAAPHERDER RENE 09:05:49:000 E 216 104.47 BERGEN, Pays-Bas
730 4172 KEEKSTRA DIRK 09:05:57:000 E 217 104.46 GRONINGEN, Pays-Bas
731 2106 MASCALL DAVE 09:06:02:000 D 304 104.45 REDHILL SURREY, Royaume-Uni
732 2175 EXBRAYAT DIDIER 09:06:04:300 D 305 104.44 POLIGNAC, FRANCE
733 2238 SCHMIDT PERCY 09:06:10:000 E 218 104.43 PURMEREND, Pays-Bas
734 3895 EYMARD CYRIL 09:06:12:000 D 306 104.43 SEYSSINS, FRANCE
735 1860 LUIJKX LEON 09:06:36:000 D 307 104.39 LIESSEL, Pays-Bas
736 3858 WOUTERS MARCEL 09:06:38:000 F 49 104.38 MALLE, BELGIQUE
737 4332 DE VOS SICCO 09:06:39:000 D 308 104.38 ARNHEM, Pays-Bas
738 3272 297814 VAN DEN BERG 09:07:07:000 F 50 104.33 ,
739 1067 ANDRE JEAN MARC 09:07:07:900 E 219 104.33 BUXY, FRANCE
740 4849 HOUTUM RENE MARINUS 09:07:13:000 E 220 104.32 DEN DUNGEN, Pays-Bas
741 2355 DENOEL CHRISTIAN 09:07:22:000 E 221 104.31 HACCOURT, BELGIQUE
742 1416 TOLLENAAR NICO 09:07:33:000 C 139 104.29 UTRECHT, Pays-Bas
743 3165 FORESTIER HERVé 09:07:46:000 E 222 104.26 SORBIERS, FRANCE
744 4537 DIEPENBROEK BAS 09:08:04:000 C 140 104.23 UTRECHT, Netherlands
745 5163 MEIJER ANDRE 09:08:04:900 C 141 104.23 AMSTERDAM, Pays-Bas
746 4379 NIJKAMP TOM 09:08:06:000 C 142 104.23 ARNHEM, Pays-Bas
747 1631 CEULEMANS FRANCOIS 09:08:10:000 F 51 104.22 BEERSE, BELGIQUE
748 3141 VANFRACHEM MICHEL 09:08:14:000 E 223 104.21 VILVOORDE, BELGIQUE
749 3140 NOE JAAK 09:08:16:000 E 224 104.21 BLANDEN, BELGIQUE
750 1405 STEENBERGEN WIM 09:08:24:000 E 225 104.19 ZUTPHEN, Pays-Bas
751 103 LE QUERE MARCEL 09:08:30:000 F 52 104.19 LA GARENNE COLOMBES, FRANCE
752 4306 BROENS LUIT 09:08:33:000 E 226 104.18 BEDUM, Pays-Bas
753 1208 VAN RIJSWIJK ABGAR 09:08:33:300 C 143 104.18 TILBURG, Pays-Bas
754 1055 RAABEN MATTHIJS 09:08:34:000 C 144 104.18 AMERSFOORT, Pays-Bas
755 5200 VINCENT DOMINIQUE 09:08:34:000 E 227 104.18 NUITS SAINT GEORGES, FRANCE
756 4232 MOLENAAR BERT 09:08:45:000 E 228 104.16 UDENHOUT, Pays-Bas
757 609 NIJDAM JAN FOKKO 09:08:47:200 D 309 104.15 HAREN, Pays-Bas
758 5101 SORRENTINO MARIO 09:08:52:000 E 229 104.15 MILANO, ITALIE
759 3041 SLETTEMEAAS KNUT 09:08:53:000 E 230 104.14 Risskov, Danemark
760 3204 VAN GEEL JEF 09:08:55:000 E 231 104.14 ESSEN, Belgique
761 1056 VREUGDE JEAN PIERRE 09:09:01:000 D 310 104.13 AARLE RIXTEL, Pays-Bas
762 1478 VRAUWDEUNT ED 09:09:05:000 D 311 104.12 KAATSHEUVEL, Pays-Bas
763 4176 VAN DER PLOEG RON 09:09:12:000 E 232 104.11 ZUIDLAREN, Pays-Bas
764 1354 PAS NILS 09:09:20:000 D 312 104.10 SILVOLDE, Pays-Bas
765 3246 BORBONI DANIELE 09:09:24:000 D 313 104.09 BRESCIA, ITALIE
766 3943 MARTINEAU ERIC 09:09:25:600 D 314 104.09 ST ETIENNE, FRANCE
767 2245 MANTOVANI BRUNO 09:09:30:000 D 315 104.08 NOGENT SUR MARNE, FRANCE
768 4987 SLOMP BERT 09:09:41:000 E 233 104.06 UTRECHT, Pays-Bas
769 555 PORSIUS WILLEM 09:10:07:000 D 316 104.01 RUOPHEN, Pays-Bas
770 3240 GARAVELLI PATRICE 09:10:13:000 E 234 104.00 ST EGREVE, FRANCE
771 9061 BOONE PATRICK 09:10:16:900 E 235 104.00 ANTWERPEN (MERKSEN), BELGIQUE
772 2874 VAN VLIET TONNIE 09:10:20:000 D 317 103.99 DRIEMOND, Pays-Bas
773 3435 ERKELENS JEROEN 09:10:31:000 E 236 103.97 AMSTELVEEN, Pays-Bas
774 3645 DE WITTE STEFAAN 09:10:37:000 C 145 103.96 AALTER, BELGIQUE
775 3600 EHRLER BERNARD 09:10:51:000 F 53 103.93 SCHILTIGHEIM, FRANCE
776 1425 VAN DE VORST PETER 09:10:55:000 D 318 103.93 GELDROP, Pays-Bas
777 2217 GRENIER ROMAIN 09:11:00:000 C 146 103.92 BOURG EN BRESSE, FRANCE
778 396 HORNSTRA HANS 09:11:01:000 E 237 103.92 ST NICOLAASGA, Pays-Bas
779 489 WERKMAN JAN 09:11:02:200 E 238 103.92 ST NICOLAASGA, Pays-Bas
780 1570 PEVENAGE JOHAN 09:11:02:900 F 54 103.92 ZOTTEGEM, BELGIQUE
781 1163 HERMET GERARD 09:11:03:000 F 55 103.91 CELLULE, FRANCE
782 1154 NARCISI MARCO 09:11:03:100 E 239 103.91 CORREGGIO, ITALIE
783 3533 CORS SERRA JOAN 09:11:04:000 E 240 103.91 TONA, ESPAGNE
784 583 GERRITSEN MAARTEN 09:11:05:000 C 147 103.91 WAGENINGEN, Pays-Bas
785 816 HANSEN THEIS HAGEN 09:11:10:000 E 241 103.90 COPENHAGEN S, DANEMARK
786 3171 DENIS BERNARD 09:11:14:000 E 242 103.89 HOUDREMONT, BELGIQUE
787 1346 SCHREURS HENDRIK JAN 09:11:14:600 D 319 103.89 ERMELO, Pays-Bas
788 1485 WELP HENK 09:11:29:000 F 56 103.87 HEEMSKERK, Pays-Bas
789 350 BEUVAIN JEAN-LUC 09:11:34:000 E 243 103.86 FONTENAY SOUS BOIS, FRANCE
790 2136 IGLESIS ALAIN 09:11:34:000 E 244 103.86 ANNECY, FRANCE
791 468 VAN LOO GERRIT 09:11:40:000 D 320 103.85 THARD, Pays-Bas
792 2671 VANDECAETSBEEK EDDY 09:11:44:000 E 245 103.84 HOELSELT, BELGIQUE
793 455 VAN DE SCHOOT HEIN 09:11:45:000 F 57 103.84 TERBORG, Pays-Bas
794 3362 D ASCOLI JEAN-PIERRE 09:11:49:000 D 321 103.83 LE VERSOUD, FRANCE
795 4929 SMOLDERS RONNY 09:12:07:000 E 246 103.80 HERSELT, BELGIQUE
796 5159 GAUTIER ROLAND 09:12:13:000 E 247 103.79 TOURNON SUR RHONE, FRANCE
797 3719 OUDSHOORN RENEE 09:12:14:000 D 322 103.79 ZOETERMEER, Pays-Bas
798 2084 DEMEUZOY ALAIN 09:12:35:000 E 248 103.75 CHALON SUR SAONE, FRANCE
799 2187 LAENEN FRANS 09:12:39:000 E 249 103.74 KASTERLEE, BELGIQUE
800 474 VAN TEEFFELEN JEROEN 09:12:44:000 D 323 103.73 TILBURG, Pays-Bas
801 1704 GEERLINGS DENNIS 09:12:44:000 D 324 103.73 LELYSTAD, Pays-Bas
802 2420 URBIZU ZABALETA RAFAEL 09:12:49:300 D 325 103.72 SAN SEBASTIAN, ESPAGNE
803 3229 FARRET MAX 09:12:51:900 E 250 103.72 CAMBERNARD, FRANCE
804 2415 DEN BOER JOS 09:13:08:000 D 326 103.69 BARENDRECHT, Pays-Bas
805 4469 BASELMANS REMOND 09:13:10:500 D 327 103.69 DENBOSCH, Pays-Bas
806 4169 KORT MARTHIJN 09:13:15:000 C 148 103.68 LEIDEN, Pays-Bas
807 1905 VAN OORT PIERRE 09:13:24:000 D 328 103.66 DIESSEN, Pays-Bas
808 351 AHRENS RUDY 09:13:27:000 E 251 103.66 NIJMEGEN, Pays-Bas
809 9027 HEYNINGEN VAN PETER 09:13:28:600 D 329 103.66 , Pays-Bas
810 1762 TISSOT J.PAUL 09:13:32:000 F 58 103.65 NICE, FRANCE
811 4292 VAN DIJK JAPPIE 09:13:36:000 F 59 103.64 WIJCKEL, Pays-Bas
812 2293 WILHELM MAURICE 09:13:39:200 G 4 103.64 BANDOL, FRANCE
813 4198 DE RON YVES 09:14:05:000 D 330 103.59 ZEMST, Pays-Bas
814 4103 GRIMBERT JEAN 09:14:07:000 F 60 103.59 VOREPPE, FRANCE
815 1698 SAFFON PIERRE 09:14:08:000 E 252 103.58 LANGRES, FRANCE
816 1406 STEIJN LEO 09:14:09:000 D 331 103.58 ERMELO, Pays-Bas
817 4200 NIJVELDT PAUL 09:14:10:000 E 253 103.58 ALMERE, Pays-bas
818 3104 SANNIER JEAN LOUIS 09:14:12:900 F 61 103.58 AUPPEGARD, FRANCE
819 1321 MOLLER JOHN 09:14:13:000 D 332 103.58 LOSNING, DANEMARK
820 3762 COLOMBIER DAVID 09:14:13:600 C 149 103.58 CALUIRE ET CUIRE, FRANCE
821 2680 RAVIER DAVID 09:14:16:000 C 150 103.57 CROLLES, FRANCE
822 3391 COUTELARD BRUNO 09:14:31:000 E 254 103.54 ESCAUDOEUVRES, FRANCE
823 2310 ROYANT CLAUDE 09:14:32:800 E 255 103.54 PLONEVEZ PORZAY, FRANCE
824 3199 TOOLENAAR TOON 09:14:38:000 E 256 103.53 MIJNSHEERENLAND, Pays-Bas
825 4718 DE GRAUWE PHILIP 09:14:45:000 E 257 103.52 BERLARE, BELGIQUE
826 2053 CLAPPEY MAURO 09:14:50:000 D 333 103.51 ST CHRISTOPHE (AOSTA), ITALIE
827 2189 VERSCHUEREN ERIC 09:14:55:700 E 258 103.50 BONHEIDEN, Belgique
828 1760 MARTINEZ ERIC 09:15:02:000 D 334 103.49 NOTRE DAME DE COMMIERS, FRANCE
829 4022 SUCHIER GERARD 09:15:25:000 G 5 103.45 TOURNON, FRANCE
830 1284 WALKLEY MATTHEW 09:15:43:000 D 335 103.42 LEEDS, Royaume-Uni
831 1343 JAMET PHILIPPE 09:15:44:000 D 336 103.41 LE POUZIN, FRANCE
832 93 BARENGHIEN FREDERIC 09:15:45:800 D 337 103.41 PHALEMPIN, FRANCE
833 3625 DUPIRE BENOIT 09:15:48:000 F 62 103.41 BEUVRAGES, FRANCE
834 1303 MADSEN FRANK 09:15:52:000 E 259 103.40 HEDENSTED, DANEMARK
835 4184 VANBAEL JOS 09:15:58:000 F 63 103.39 HEUSDEN ZOLDER, BELGIQUE
836 2929 COZZUTTO FABRIZIO 09:16:08:000 D 338 103.37 GORIZIA, ITALIE
837 1236 VAN HEUVERSWIJN JAN PIETER 09:16:08:700 D 339 103.37 MERELBEKE, BELGIQUE
838 4091 FERNANDO LOZOYA LOPEZ 09:16:23:000 B 5 103.34 CATARROJA, ESPAGNE
839 4199 VAN WEES GE 09:16:29:000 E 260 103.33 ABCOUDE, Pays-Bas
840 1545 VAN DE LAAR HENNIE 09:16:39:000 E 261 103.32 GEMERT, Pays-Bas
841 904 DEMARTEAU FRANS 09:16:44:000 E 262 103.31 VENRAY, Pays-Bas
842 4723 SENGERS RON 09:16:58:000 E 263 103.28 HAARLEM, Pays-Bas
843 2088 ABADIE LAURENT 09:17:45:000 D 340 103.20 LEVENS, FRANCE
844 321 BEUREL JOSE 09:17:49:000 F 64 103.19 CHALON SUR SAONE, FRANCE
845 4642 KATARZYNSWI KRYSZTOF 09:17:52:000 D 341 103.19 ZIELONA GORA, 28
846 4112 BRUYERE REMY 09:17:54:000 D 342 103.18 ST EGREVE, FRANCE
847 2195 TOEPOEL AD 09:17:54:900 F 65 103.18 TILBURG, Pays-Bas
848 5253 AFUERA GROS ANTONIO 09:17:55:000 D 343 103.18 PALMA DE MALLORCA, ESPAGNE
849 1665 MAES ROBERT 09:18:02:000 E 264 103.17 REET, BELGIQUE
850 2661 MONIER GERARD 09:18:19:000 E 265 103.14 CHATEAURENARD, FRANCE
851 4444 PLOMPEN COEN 09:18:29:000 C 151 103.12 DEN HOUT, Pays-Bas
852 1372 RIJNBERG WILLEM 09:18:32:000 D 344 103.12 GIETEN, Pays-Bas
853 3411 VAN DE POLL MARCEL 09:18:39:000 C 152 103.10 Weert, Pays-Bas
854 2146 GEERSING ANDRE 09:18:42:300 D 345 103.10 PATERSWOLDE, Pays-Bas
855 3545 BONFILS THIERRY 09:18:52:000 E 266 103.08 LUZINAY, FRANCE
856 2636 MOYA THIERRY 09:18:52:500 D 346 103.08 VILLARD SAINT PANCRACE, FRANCE
857 514 VAN DIJK PERRY 09:19:00:000 E 267 103.07 AMSTERDAM, Pays-Bas
858 1768 MITTENDORFF ILSE 09:19:10:000 A 9 103.05 DELFT, Pays-Bas
859 2637 SANSONNE NICOLAS 09:19:18:000 E 268 103.03 BRIANCON, FRANCE
860 2936 BEUKELEIRS JAN 09:19:25:000 D 347 103.02 KESSEL-LO, BELGIQUE
861 1557 DE VEUSTER WIM 09:19:44:000 E 269 102.99 WEERDE, BELGIQUE
862 953 JONGSTRA SIONE 09:19:47:000 A 10 102.98 LEERDAM, Pays-Bas
863 3106 GALLIEN PHILIPPE 09:19:49:000 D 348 102.98 GIF SUR YVETTE, FRANCE
864 1823 ERENDS MARCEL 09:20:04:000 C 153 102.95 ASSEN, Pays-Bas
865 3818 YANGUAS TENEDOR ALBERTO 09:20:12:000 D 349 102.94 CALDES DE MONTBUI, ESPAGNE
866 1866 PITZALIS SAMUELE 09:20:18:000 D 350 102.93 DEN HAAG, Pays-Bas
867 3561 VERMEIRE WIM 09:20:26:000 E 270 102.91 OOSTENDE, BELGIQUE
868 712 BROGNIET JEAN PIERRE 09:20:27:600 F 66 102.91 VIRELLES, BELGIQUE
869 4941 BIJLSMA ALMAR 09:20:28:000 C 154 102.91 UTRECHT, Pays-Bas
870 4921 BLUNDELL BEN 09:20:45:000 C 155 102.88 STOCKPORT, Royaume-Uni
871 1429 VAN DEN BRANDE RICKY 09:20:47:000 D 351 102.88 BALEN, BELGIQUE
872 1710 CARENZO BERNARD 09:20:47:900 F 67 102.88 RIXHEIM, FRANCE
873 1945 DOEDENS JELIS 09:20:53:000 E 271 102.87 ANNEN, Pays-Bas
874 3175 PERON PHILIPPE 09:20:54:000 C 156 102.86 BREST, FRANCE
875 3420 DEPREZ JOEL 09:21:02:000 E 272 102.85 AIGLEPIERRE, FRANCE
876 3622 TUMEDEI PIER PAOLO 09:21:08:300 E 273 102.84 FORLI, ITALIE
877 294 RAVAGNI LIONEL 09:21:09:000 D 352 102.84 HOUILLES, FRANCE
878 2158 VAN HERZEELE LUC 09:21:15:000 F 68 102.83 LOKEREN, BELGIQUE
879 3071 COSSOUL J.PIERRE 09:21:15:300 E 274 102.83 CALUIRE ET CUIRE, FRANCE
880 4440 MAENE ANSFRIED 09:21:18:000 E 275 102.82 ZEDELGEM, BELGIQUE
881 3565 VAN SOMEREN GEERT 09:21:33:000 D 353 102.80 LIESSEL, Pays-Bas
882 1941 DE VRIES DENNIS 09:21:34:300 C 157 102.79 NIEUWEGEIN, Pays-bas
883 1542 VLEMINX JAN 09:21:34:800 E 276 102.79 RAMSEL (HERSELT), BELGIQUE
884 862 BETHLEHEM MARC 09:21:47:000 D 354 102.77 GRONINGEN, Pays-Bas
885 1856 LAMBREGTS MARCEL 09:21:49:000 D 355 102.77 METEREN, Pays-Bas
886 3466 SCHARTZ ALY 09:21:49:000 D 356 102.77 MERSCH, LUXEMBOURG
887 1995 OPDAM MARTIN 09:21:50:000 D 357 102.77 LIESSEL, Pays-Bas
888 4833 NOORDHOF JAN HILLE 09:21:51:300 E 277 102.76 AMERSFOORT, Pays-Bas
889 3166 BOSSU NOEL 09:21:51:600 D 358 102.76 SORBIERS, FRANCE
890 4299 BOSMANS BART 09:21:53:000 C 158 102.76 WIJGMAAL, BELGIQUE
891 2090 HEEREN PIET 09:22:06:000 F 69 102.74 VELDHOVEN, Pays-Bas
892 1139 KOENRAADT GORI 09:22:13:000 F 70 102.72 DEURNE, Pays-Bas
893 2425 ARROZPIDE GOIKOETXEA JOSE MARIA 09:22:16:000 E 278 102.72 HERNANI, ESPAGNE
894 1021 MONTEL JEAN LUC 09:22:16:500 E 279 102.72 NEBOUZAT, FRANCE
895 4010 VERDIER FREDERIC 09:22:36:000 E 280 102.68 ESTREES SUR NOYE, FRANCE
896 4126 BOSSE THIERRY 09:22:38:000 D 359 102.68 ECHIROLLES, FRANCE
897 3647 JUSTENS MARC 09:22:52:000 E 281 102.66 ZOERSEL, BELGIQUE
898 1233 STEENHAUT HANS 09:22:54:000 D 360 102.65 ELLEZELLES, BELGIQUE
899 2575 LE LANN GUY 09:22:54:300 F 71 102.65 GUENGAT, FRANCE
900 2054 BOVEROD DINO 09:23:01:000 E 282 102.64 AOSTA, ITALIE
901 1541 VAN LOMMEL GEERT 09:23:04:000 E 283 102.63 HEIST OP DEN BERG (32), BELGIQUE
902 297 PEGUIN BERNARD 09:23:16:000 F 72 102.61 COUPVRAY, FRANCE
903 1543 ABRAMS GUY 09:23:25:000 E 284 102.60 DEN HAAG, Pays-Bas
904 2357 MATTHE JOZEF 09:23:30:000 E 285 102.59 RIJKEVORSEL, BELGIQUE
905 3054 GEENEN VICTOR 09:23:35:000 E 286 102.58 ARENDONK, BELGIQUE
906 1561 LANDERLOOS STEFAAN 09:23:38:000 D 361 102.57 SINT KRUIS BRUGGE, BELGIQUE
907 2740 VERBOORD  JAN 09:23:44:000 D 362 102.56 Berghem , Pays-Bas
908 4281 VEEFKIND JEROEN 09:23:56:000 D 363 102.54 EINDHOVEN, Pays-Bas
909 4788 LUCAS PASCAL 09:24:00:000 E 287 102.53 AJACCIO, FRANCE
910 4474 GIULIANI ADRIANO 09:24:02:000 E 288 102.53 ESWARS, FRANCE
911 1339 GOELEVEN ERIK 09:24:03:400 D 364 102.53 KAGGEVINNE, BELGIQUE
912 1829 HAANSTRA ROEL 09:24:04:000 E 289 102.53 MIDDELBURG, Pays-Bas
913 3511 OOST TJAPKO 09:24:46:000 E 290 102.45 EMMEN, Pays-Bas
914 2311 LAGAEYSSE HANS 09:24:56:000 D 365 102.44 Russeignies (Mont de l Enclus), Belgique
915 3173 HORELLOU HERVE 09:25:02:000 D 366 102.42 BREST, FRANCE
916 3048 MAYR ANDREAS 09:25:02:800 D 367 102.42 MUNICH, ALLEMAGNE
917 2050 DE NEEF MARC 09:25:03:000 D 368 102.42 BETEKOM, BELGIQUE
918 2719 TENGROOTENHUYSEN PAUL 09:25:12:000 E 291 102.41 BRECHT, BELGIQUE
919 3684 VAN DER BORGHT JOEL 09:25:18:000 D 369 102.40 HERSELT, BELGIQUE
920 1113 RUYTER HENK 09:25:19:000 E 292 102.39 DEN HAAG, Pays-Bas
921 3878 ROZEC JEAN NOEL 09:25:26:000 E 293 102.38 LA MURETTE, FRANCE
922 4817 MALLIEN ANDRE 09:25:26:800 D 370 102.38 CINEY EMPTINNE, BELGIQUE
923 919 GEBOERS ERIC 09:25:27:000 E 294 102.38 BALEN, BELGIQUE
924 1249 LINDELAUF CHARLES 09:25:27:700 D 371 102.38 BILZEN, BELGIQUE
925 3942 HAERTTER ANDREAS 09:25:31:000 C 159 102.37 STUTTGART, ALLEMAGNE
926 1745 GARREC SBASTIEN 09:25:40:000 D 372 102.36 CHAMBERY, FRANCE
927 1493 ZANDERS LAMBERT 09:25:41:100 D 373 102.36 NEER, Pays-Bas
928 4494 VAN DER VEEN MAURITS 09:26:06:000 D 374 102.31 UTRECHT, Pays-Bas
929 1310 LINDBERG CARSTEN 09:26:41:000 E 295 102.25 JAEGERSPRIS, DANEMARK
930 2880 VERSTEEG TOM 09:26:54:000 C 160 102.22 DRIEMOND, Pays-Bas
931 4954 TREITINGER ROBERT 09:27:01:400 C 161 102.21 INNSBRUCK, 1
932 2560 LEVRING FREDERIK 09:27:19:000 E 296 102.18 SLANGERUP, DANEMARK
933 721 THORHAUGE ALLAN 09:27:39:000 E 297 102.15 HORNSLET, DANEMARK
934 2746 WALS LEENDERT 09:27:41:000 F 73 102.14 ILPENDAM, Pays-Bas
935 2458 ETHEFELD FLEMMING 09:27:56:000 D 375 102.11 LANGA, DANEMARK
936 3499 ROSENBAEK CARSTEN 09:27:59:000 D 376 102.11 AEROESKOEBING, DANEMARK
937 1523 PIPPONIAU PASCAL 09:28:09:000 C 162 102.09 FRANKFURT, ALLEMAGNE
938 2797 GOEDE TOM 09:28:12:000 E 298 102.09 LANDSMEER, Pays-Bas
939 866 BLANKEN ROBERT 09:28:22:000 E 299 102.07 VEENWOUDEN, Pays-Bas
940 2255 HERVOUET YVES 09:28:33:000 F 74 102.05 ECULLY, FRANCE
941 4192 VERHAAGH WIEL 09:28:33:600 F 75 102.05 LOTTUM, Pays-Bas
942 2486 VANBAELEN JEAN 09:28:58:000 E 300 102.00 MEEUWEN, BELGIQUE
943 2314 DEZETAVE JEANNICK 09:29:01:000 F 76 102.00 AVESNES LES AUBERT, FRANCE
944 3122 BENOIST PASCAL 09:29:02:700 D 377 102.00 ST AVERTIN, FRANCE
945 522 HOOGEVEEN HUUB 09:29:04:000 D 378 102.00 UTRECHT, Pays-Bas
946 2938 JAFFRIN JEAN-MICHEL 09:29:54:000 E 301 101.91 FRONTONAS, FRANCE
947 2780 DE MUNNIK JEROEN 09:29:54:200 C 163 101.91 HILVERSUM, Pays-Bas
948 2639 CHANARD PASCAL 09:30:03:900 E 302 101.89 AUXERRE, FRANCE
949 3263 PETITHORY CLAUDE 09:30:13:000 E 303 101.87 HOENHEIM, FRANCE
950 2783 DE VRIES ESTHER 09:30:16:000 A 11 101.87 GRONINGEN, Pays-Bas
951 4142 KOKS ERIK 09:30:23:000 C 164 101.85 ROTTERDAM, Pays-Bas
952 4087 VAN HOOF ROBERT 09:30:28:000 F 77 101.85 TREMELO, BELGIQUE
953 249 DEL COCO CHRISTIAN 09:30:34:500 E 304 101.83 LYON, FRANCE
954 1037 CYR MICHEL 09:30:41:600 D 379 101.82 HULL (QUEBEC), 13
955 2388 RITHNER OLIVIER 09:30:45:000 E 305 101.81 LE BRASSUS, SUISSE
956 1524 RIPOCHE YANNICK 09:30:50:000 D 380 101.81 EPAGNY METZ TESSY, France
957 2841 OUDSHOORN LOUIS 09:30:51:000 D 381 101.81 LEIDERDORP, Pays-bas
958 1128 MEULENEIRE DANNY 09:30:56:000 F 78 101.80 BURST, BELGIQUE
959 2142 KAPPEN FRANS 09:31:06:000 D 382 101.78 RENRUM, Pays-Bas
960 3036 LUTTE MICHEL 09:31:08:400 D 383 101.78 CASTRICUM, Pays-Bas
961 2456 LINDHART JESPER 09:31:11:000 C 165 101.77 ULSTRUP, DANEMARK
962 1955 HEKKELMAN ERWIN 09:31:15:000 D 384 101.76 ALMELO, Pays-Bas
963 516 JANSEN MARK 09:31:29:000 D 385 101.74 PURMEREND, Pays-Bas
964 1106 CAUDRON J.PAUL 09:31:36:000 E 306 101.72 TOULON, FRANCE
965 544 VAN DELFT MARCEL 09:31:47:300 D 386 101.70 RIJNSBURG, Pays-Bas
966 1852 KROL RINZE 09:31:55:800 D 387 101.69 Zwolle, Pays-Bas
967 3852 DUMOUCHEL STEPHANE 09:32:12:000 D 388 101.66 ANDOLSHEIM, FRANCE
968 2334 VAN DEN LANGENBERGH DENNIS 09:32:16:000 E 307 101.65 VORSELAAR, BELGIQUE
969 2548 GAY BERTRAND 09:32:16:000 E 308 101.65 VILLEVOCANCE, FRANCE
970 117 HEAPS MICHAEL 09:32:19:000 E 309 101.65 SAINTE CATHERINE, FRANCE
971 2952 BALOCCO LUCA 09:32:20:300 D 389 101.65 CUENO, ITALIE
972 5271 Hugues Raymond 09:32:21:700 D 390 101.64 SAINT CLAUDE, FRANCE
973 3042 BANG TORBEN 09:32:32:000 E 310 101.63 Risskov, Danemark
974 2150 DOEDENS BERT 09:32:49:000 C 166 101.59 EELDERWOLDE, Pays-Bas
975 3820 ROIG VIDAL ENRIC 09:32:53:000 E 311 101.59 SABADELL, ESPAGNE
976 374 DE JONG RINTSJE 09:32:55:000 E 312 101.58 ST NICOLAASGA, Pays-Bas
977 1761 DARNAND JACQUES 09:32:56:100 F 79 101.58 CHIRENS, FRANCE
978 1517 HERMANS JOS 09:33:13:000 E 313 101.55 DIEPENBEEK, BELGIQUE
979 3546 MARCONNET PATRICE 09:33:13:000 C 167 101.55 LYON, FRANCE
980 1101 YAN GUY 09:33:21:500 F 80 101.54 PLAIMPIED, FRANCE
981 1443 VAN GILS FRANK 09:33:22:800 D 391 101.54 WUUSTWEZEL, BELGIQUE
982 4189 KERSTEN CEES 09:33:31:000 F 81 101.52 WILHELMINAOORD, Pays-Bas
983 2660 304535 SCHUTTE 09:33:34:000 F 82 101.52 ,
984 250 MARTIN MARC 09:33:36:000 E 314 101.51 NAMUR, Belgique
985 2443 RAGA CARRERES DAVID 09:33:40:000 D 392 101.50 MASSANASSA (VALENCIA), Espagne
986 2870 VAN OS PETER 09:33:46:900 D 393 101.49 EINDHOVEN, Pays-Bas
987 4116 CHARVET JACQUES 09:33:50:300 F 83 101.49 MEYLAN, France
988 2699 VAN LOON DIRK 09:33:51:000 D 394 101.48 ARENDONK, BELGIQUE
989 2253 VAN EXEL IVO 09:33:57:000 E 315 101.47 RUMMEN, BELGIQUE
990 3582 JENQUIN PHILIPPE 09:34:00:000 D 395 101.47 NINOVE, BELGIQUE
991 3589 BRUNET FLORENT 09:34:10:000 D 396 101.45 FEUGUEROLLES BULLY, FRANCE
992 1205 DERDER NOEL 09:34:13:000 F 84 101.45 GERAARDSBERGEN, BELGIQUE
993 3364 LECOUF ALAIN 09:34:22:000 F 85 101.43 RAILLENCOURT SAINTE OLLE, FRANCE
994 3486 WOUDA ERNEST 09:34:22:300 F 86 101.43 AMSTELVEEN, Pays-Bas
995 2108 POST PETER 09:34:45:000 E 316 101.39 HILVERSUM, Pays-Bas
996 2461 KNUDSEN JENS 09:34:50:000 D 397 101.38 ULSTRUP, DANEMARK
997 2102 BOONEKAMP GERARD 09:35:14:000 E 317 101.34 DELFT, Pays-Bas
998 2052 VECTION ILARIO 09:35:15:000 D 398 101.34 ARVIER (AOSTA), ITALIE
999 4151 JEHIN EMANNUEL 09:35:21:600 C 168 101.33 BOOISCHOT, BELGIQUE
1000 1147 VAN NUFFELEN RODGE 09:35:24:900 E 318 101.32 OVERPELT, BELGIQUE
1001 2544 DORSAZ LAURENT 09:35:38:000 D 399 101.30 FULLY (VS), SUISSE
1002 50 DICKHOUT JAN 09:35:45:000 F 87 101.28 EINDHOVEN, Pays-Bas
1003 1444 VAN GILS GWEN 09:35:59:000 C 169 101.26 WUUSTWEZEL, BELGIQUE
1004 530 DINGEMANS JOS 09:36:03:400 F 88 101.25 EINDHOVEN, Pays-Bas
1005 9084 FLORION LUC 09:36:04:100 E 319 101.25 ST AVOLD, FRANCE
1006 581 ROMKENS PAUL 09:36:06:000 D 400 101.25 BENNEKOM, Pays-bas
1007 688 RAHMS FRANS 09:36:25:000 D 401 101.21 KROMMENIE, Pays-Bas
1008 5270 Romanens Lionel 09:36:27:000 D 402 101.21 Sergy, FRANCE
1009 3341 REMY ETIENNE 09:36:28:000 D 403 101.21 LIERNEUX, BELGIQUE
1010 764 VAN DOOREN EDUARD 09:36:31:000 F 89 101.20 MERKSPLAS, BELGIQUE
1011 3067 CAUSSE PHILIPPE 09:36:33:700 D 404 101.20 AGONES, FRANCE
1012 2848 ROUPPE VD VOORT JORIS 09:36:36:000 D 405 101.19 HOOGLAND, Pays-Bas
1013 4939 SOENARIO IVAN 09:36:46:000 D 406 101.17 UTRECHT, Pays-Bas
1014 2763 SLOT ALDERT 09:37:00:000 E 320 101.15 WESTZAAN, Pays-Bas
1015 940 HOORNSMAN KLAAS 09:37:05:000 D 407 101.14 WIERINGERWERF, Pays-Bas
1016 989 MEKES FRANK 09:37:20:500 E 321 101.11 GEERTRUIDENBERG, Pays-Bas
1017 4458 MOYAERT LUC 09:37:23:700 E 322 101.11 ZEDELGEM, BELGIQUE
1018 3844 FASSINO SANDRO 09:37:33:000 D 408 101.09 VENEZIA MARGHERA, ITALIE
1019 3202 LIEVENS KAREL 09:37:52:000 D 409 101.06 BRUGES, BELGIQUE
1020 3328 BARBEREAU JACQUES 09:38:06:000 F 90 101.03 SAINT MEDARD D AUNIS, FRANCE
1021 3506 DE GROOT JAN 09:38:08:000 E 323 101.03 OUDERKERK A.D. AMSTEL, Pays-bas
1022 2840 OOTES FRANK 09:38:13:200 D 410 101.02 HOOFDDORP, Pays-Bas
1023 2484 VERHEYEN WILLY 09:38:14:000 E 324 101.02 MEEUWEN, BELGIQUE
1024 1006 HOOGENBOOM PETER 09:38:23:000 E 325 101.00 KUDELSTRAART, Pays-Bas
1025 4219 VAN DE VIS TON 09:38:29:000 F 91 100.99 ASSEN, Pays-Bas
1026 2621 BODIN FRANCK 09:38:31:000 E 326 100.99 MARSEILLE, FRANCE
1027 2675 LUCIANO MASSIMO 09:38:32:000 C 170 100.99 LESEGNO, ITALIE
1028 1567 DE JONGE PETER 09:38:33:200 D 411 100.98 ERPE MERE, BELGIQUE
1029 1340 DE KERF GINO 09:38:34:400 D 412 100.98 PULDERBOS, BELGIQUE
1030 5149 NIELSEN OLE HYE 09:38:37:000 E 327 100.98 ODENSE, DANEMARK
1031 4030 PETREMENT PHILIPPE 09:38:40:000 D 413 100.97 BESANCON, France
1032 5212 VERWAEST RIK 09:38:46:000 E 328 100.96 BEERSE, BELGIQUE
1033 5202 CARLE ERIC 09:38:47:000 C 171 100.96 SAINT JEAN BONNEFONDS, FRANCE
1034 3560 COLLIN ERIC 09:38:48:100 E 329 100.96 BELLEFONTAINE, BELGIQUE
1035 3022 DE BRAAL PETER 09:38:56:000 D 414 100.94 OUDERKERK AD AMSTEL, Pays-Bas
1036 1302 PEDERSEN KALLE 09:38:59:000 E 330 100.94 HEDENSTED, DANEMARK
1037 3581 HOEFKENS GERRY 09:39:16:000 C 172 100.91 HEIST O/D BERG, BELGIQUE
1038 2652 CLAEYS CHRISTIAAN 09:39:19:000 F 92 100.90 OUDENAARDE, BELGIQUE
1039 2564 JENSEN NIELS 09:39:29:000 E 331 100.89 SLANGERUP, DANEMARK
1040 1970 KAMMINGA ALBERT 09:39:33:000 F 93 100.88 SPIJK GN, Pays-Bas
1041 4713 KLEIN MARTIN 09:39:51:000 D 415 100.85 NIEUWERTRED A/D IJSSEL, Pays-Bas
1043 2481 VAN CAPPELLE KAREL 09:39:55:000 E 333 100.84 CAPELLE AAN DEN IJSS, Pays-Bas
1044 4679 VAN DE VEN PAUL 09:40:17:000 C 173 100.80 VELDHOVEN, Pays-Bas
1045 1899 VAN FELIUS PIETER 09:40:18:100 E 334 100.80 APELDOORN, Pays-Bas
1046 2057 GRAEFFLY YVES 09:40:20:000 F 94 100.80 CAPPEL, FRANCE
1047 3428 DELPORTE ALAIN 09:40:20:800 E 335 100.80 FUMEL, FRANCE
1048 2712 SNELDER RICHARD 09:40:35:000 D 416 100.77 EDE, Pays-Bas
1049 920 GERARDS MARCEL 09:40:38:600 F 95 100.76 UTRECHT, Pays-Bas
1050 4975 MEDENDORP JAN MENNO 09:40:40:000 D 417 100.76 EELDE, Pays-Bas
1051 3124 RAPHALEN MICHEL 09:41:00:000 E 336 100.72 TREOGAT, FRANCE
1052 2234 SCHNEGG SERGE 09:41:01:000 D 418 100.72 YVONAND, SUISSE
1053 2242 ANTOINE JACQUES 09:41:32:000 E 337 100.67 MERY SUR CHER, FRANCE
1054 3151 ROUF GERARD 09:41:35:600 E 338 100.66 COUTERNON, FRANCE
1055 3516 RALLO GUINOT FRANCESCO 09:41:42:000 E 339 100.65 BENICASIM, ESPAGNE
1056 1419 VAN BEELEN PETER 09:41:55:000 E 340 100.63 Delft, Pays-Bas
1057 2021 HUYGEN GERT 09:42:00:000 D 419 100.62 STABROEK, Belgique
1058 3178 VANDEZANDE ETIENNE 09:42:08:000 G 6 100.60 OUD-HEVERLEE, BELGIQUE
1059 1031 ZELDENRUST MARTEN 09:42:09:500 E 341 100.60 HOENDERLOO, Pays-Bas
1060 2582 JENSEN MICHAEL 09:42:15:000 D 420 100.59 SLANGERUP, DANEMARK
1061 2139 DRIESSEN PETER 09:42:28:000 E 342 100.57 ELSLOO-STEIN, Pays-Bas
1062 2094 VERHOEFF KEES 09:42:31:200 E 343 100.56 BERKEL EN RODENRIJS, Pays-Bas
1063 2971 CABRERA VELASCO JUAN FRANCISCO 09:42:32:000 D 421 100.56 ARRIATE, ESPAGNE
1064 3917 GLAIZAL STEPHANE 09:42:39:000 E 344 100.55 VALENCE, FRANCE
1065 3868 COURT HUBERT 09:42:59:000 F 96 100.51 ROUEN, FRANCE
1066 1568 VLAEMINCK INGRID 09:43:07:000 A 12 100.50 HERZELE, BELGIQUE
1067 1562 TAILDEMAN PATRICK 09:43:07:800 E 345 100.50 ST MARTENS LATEM, BELGIQUE
1068 2330 GRABIJN COR 09:43:12:000 F 97 100.49 WESTZAAN, Pays-Bas
1069 2691 SCHEPERS CHRIS 09:43:15:000 D 422 100.48 ROTSELAAR, BELGIQUE
1070 817 JENSEN LEO 09:43:22:000 D 423 100.47 MIDDELFART, DANEMARK
1071 1460 VAN VLIET HENK 09:43:35:000 E 346 100.45 BLEISWIJK, Pays-Bas
1072 782 MASSCHELIN JAN 09:43:37:000 D 424 100.44 KESSEL LOUVIN, BELGIQUE
1073 2494 JOOSTEN J.LUC 09:43:46:000 D 425 100.43 IWUY, FRANCE
1074 2448 MERENCIANO MARTINEZ JORGE 09:43:48:100 C 174 100.43 ALBAL, ESPAGNE
1075 5214 VAN DER SCHOOT LUC 09:44:14:000 D 426 100.38 BEERSE, BELGIQUE
1076 252 MACHIELSEN JOHANNES 09:44:27:000 D 427 100.36 OIRSCHOT, Pays-Bas
1077 955 VAN KAAM MARTIEN 09:44:28:000 D 428 100.36 MADE, Pays-Bas
1078 1615 CABUZEL JEAN MICHEL 09:44:29:000 F 98 100.35 BARON, FRANCE
1079 813 MUYLLE SERGE 09:44:30:000 D 429 100.35 KEERBERGEN, Belgique
1080 1158 KALKMAN BOUDEWIJN 09:44:35:000 E 347 100.34 HAARLEM, Pays-Bas
1081 1016 ENGLOK NJAL 09:44:49:000 D 430 100.32 OSLO, NORVEGE
1082 3960 PACHOT J.PHILIPPE 09:44:54:000 E 348 100.31 LE VAL ST GERMAIN, FRANCE
1083 1648 LAMMENS GERT JAN 09:45:08:000 D 431 100.28 LEKKERKERK, Pays-Bas
1084 2463 SCHULTZ MICHAEL 09:45:09:000 D 432 100.28 LEEZEN, ALLEMAGNE
1085 2516 BERTOLINI FABIO 09:45:10:300 E 349 100.28 REGGIO EMILIA (RE), ITALIE
1086 2482 DE COUX LUC 09:45:15:000 E 350 100.27 HEIST OP DEN BERG, BELGIQUE
1087 3127 LAUBIE LUCIEN 09:45:22:000 F 99 100.26 USSEL, FRANCE
1088 444 STRUIKSMA JAN 09:45:27:000 E 351 100.25 ZAANDAM, Pays-Bas
1089 3525 CAPRA HERVE 09:45:52:000 D 433 100.21 SAINT JUST CHALEYSSIN, FRANCE
1090 2506 VACCARI MAURO 09:46:04:000 E 352 100.19 CODEDOUDO REGGIO EMILIA, ITALIE
1091 820 KEMPENEERS LUC 09:46:12:000 E 353 100.17 SINT-TRUIDEN, BELGIQUE
1092 5291 BOISSIN DIDIER 09:46:15:000 E 354 100.17 ST BRES, FRANCE
1093 4533 GROSSMANN MIKE 09:46:17:500 D 434 100.16 Zeist, Pays-Bas
1094 1465 VENINGA JOHAN 09:46:22:000 C 175 100.15 WOLVEGA, Pays-bas
1095 3340 PICHAND YVES 09:46:35:000 F 100 100.13 VILLEREST, FRANCE
1096 1979 KOK HENK 09:46:41:000 E 355 100.12 LEUSDEN, Pays-Bas
1097 2449 MERENCIANO MARTINEZ FERNANDO 09:46:52:000 C 176 100.10 SEDAVI, ESPAGNE
1098 4687 MARTINEZ BARAHONA JORGE 09:46:55:000 E 356 100.09 MIRANDA DE EBRO, ESPAGNE
1099 3474 NIELSEN BENNY 09:47:00:000 D 435 100.08 NAESTVED, DANEMARK
1100 1455 VAN TOLEDO KEES-JAN 09:47:27:000 E 357 100.04 CASTRICUM, Pays-Bas
1101 964 KLAASSEN ADRIE 09:47:30:000 D 436 100.03 DEURNE, Pays-Bas
1102 3510 BROSENS MARC 09:47:34:000 D 437 100.03 RIJKEVORSEL, BELGIQUE
1103 574 RAAYMAKERS COR 09:47:40:000 D 438 100.01 WEERT, Pays-Bas
1104 133 ROUSSEL JEAN LUC 09:47:40:100 E 358 100.01 SAINT-JULIEN DU SERRE, FRANCE
1105 3455 GASNIER BRUNO 09:48:04:000 E 359 99.97 BEZANNES, FRANCE
1106 4610 LAVIRON OLIVIER 09:48:05:000 D 439 99.97 TREVOUX, FRANCE
1107 3399 KIRCHER RALF 09:48:09:000 D 440 99.96 WELZHEIM, ALLEMAGNE
1108 3044 VAND PETER 09:48:10:500 F 101 99.96 RONDE, DANEMARK
1109 3593 GLOCKER MORITZ 09:48:15:000 C 177 99.95 KONSTANZ, ALLEMAGNE
1110 4690 BOVEDA SAEZ JESUS 09:48:18:000 E 360 99.95 MIRANDA DE EBRO, ESPAGNE
1111 1594 BLIJLEVEN PATRICK 09:48:19:000 D 441 99.94 WOERDEN, Pays-Bas
1112 3009 NADLER WILLIAM 09:48:22:000 D 442 99.94 PERLY, SUISSE
1113 3558 JUDLIN PATRICK 09:48:25:000 D 443 99.93 FLAXZANDEN, FRANCE
1114 4415 HOEKWATER OLAN 09:48:35:000 C 178 99.92 ZEENOLDE, Pays-Bas
1115 4396 VAN HAM MARK 09:48:53:000 C 179 99.88 TILBURG, Pays-Bas
1116 2831 MEIJER ROBERT 09:48:55:000 D 444 99.88 ASSEN, Pays-Bas
1117 3170 BESSONE ENRICO 09:49:21:000 D 445 99.83 VICOFORTE, ITALIE
1118 2450 PALAO MARCO JUAN JESUS 09:49:30:000 D 446 99.82 ALFAFAR, ESPAGNE
1119 1977 KLEINE HOMME 09:50:08:000 D 447 99.75 DRONTEN, Pays-Bas
1120 4023 RUEDA PORTAS JUAN RAMON 09:50:11:500 D 448 99.75 VALLS, ESPAGNE
1121 325 MARIE PASCAL 09:50:16:000 E 361 99.74 VILLIERS SUR MARNE, FRANCE
1123 3320 OUD GERARD 09:50:17:000 E 363 99.74 HILVERSUM, Pays-Bas
1124 2318 SELLIER LAURENT 09:50:20:000 D 449 99.73 ROCHEFORT, FRANCE
1125 1432 VAN DER KOLK THIJS 09:50:24:000 E 364 99.72 OOSTZAAN, Pays-Bas
1126 722 DAHLERUP JENS OVE 09:50:25:500 D 450 99.72 SOROE, DANEMARK
1127 2903 VANHEUSDEN ALAIN 09:50:28:000 D 451 99.72 HERMALLE S/ ARGENTEAU, BELGIQUE
1128 361 BROUWER JOEP 09:50:29:000 C 180 99.71 MAASTRICHT, Pays-Bas
1129 79 BANDIERI ROSANNA 09:50:55:000 B 6 99.67 CORREGGIO, ITALIE
1130 1152 BISI FABIO 09:50:56:000 E 365 99.67 CORREGGIO, ITALIE
1131 2367 MAC GOUGH ROB 09:50:58:100 E 366 99.66 LEEDS, Royaume-Uni
1132 3032 KUIJS GERARD 09:51:07:000 F 102 99.65 CASTRICUM, Pays-Bas
1133 1840 KALSBEEK WILLEM 09:51:09:000 D 452 99.64 DIEREN, Pays-Bas
1134 3279 TANT HENDRIK 09:51:19:000 C 181 99.63 OOSTAKKER, BELGIQUE
1135 1864 OSSENDRIJVER PAUL 09:51:21:000 D 453 99.62 LEUSDEN, Pays-Bas
1136 3969 RUBIO NOGUERA VICTOR 09:51:39:000 E 367 99.59 MADRID, ESPAGNE
1137 433 SCHOKKER ROELOF 09:51:40:400 D 454 99.59 LEEUWORDEN, Pays-Bas
1138 3688 COOLS DIRK 09:51:45:000 E 368 99.58 ESSEN, BELGIQUE
1139 3026 NEUTEBOOM OLAF 09:51:48:000 D 455 99.57 VORDEN, Pays-Bas
1140 2099 BAKKER MARINUS 09:51:50:000 E 369 99.57 ALPHEN A/D RIJN, Pays-Bas
1141 1966 JOCHEM PETER 09:51:53:000 D 456 99.57 KAPELLEN, BELGIQUE
1142 1896 VAN DREVEN HERMAN 09:52:15:000 D 457 99.53 RENKUM, Pays-Bas
1143 3169 ROY NICOLAS 09:52:16:000 E 370 99.52 POISAT, FRANCE
1144 3261 VAN POUCKE STEFAAN 09:52:16:000 D 458 99.52 BRUGGE, BELGIQUE
1145 978 LAMMERTS HANS-PETER 09:52:18:000 D 459 99.52 AMSTERDAM, Pays-Bas
1146 4598 STABEL NICO 09:52:18:900 E 371 99.52 VELDHOVEN, Pays-Bas
1147 4233 CRUIJSSEN PIERRE 09:52:19:500 F 103 99.52 TILBURG, Pays-Bas
1148 1420 VAN BEKKUM ANDRE 09:52:27:000 E 372 99.50 UTRECHT, Pays-Bas
1149 1890 TROMP GERBEN 09:52:30:000 D 460 99.50 BEEMSTER, Pays-Bas
1150 4222 OUDE OPHUIS ROLAND 09:52:35:000 D 461 99.49 AMSTERDAM, Pays-Bas
1151 1895 VAN DER VELDE FEIKO 09:52:37:000 E 373 99.49 DE PUNT, Pays-Bas
1152 2775 DE BOER HUIB 09:52:38:000 F 104 99.49 APELDOORN, Pays-Bas
1153 3038 FREDERIKS HANS 09:52:40:000 F 105 99.48 CASTRICUM, Pays-Bas
1154 3494 OSTERGARD PER 09:52:44:000 F 106 99.47 AABENRAA, DANEMARK
1155 245 GOUJON MARTIAL 09:52:46:000 E 374 99.47 FONTAINE, FRANCE
1156 1109 ALLIET PETER 09:52:51:000 E 375 99.46 KAPELLEN, Belgique
1157 3665 MARANZI MICHELE 09:53:06:000 D 462 99.44 MONZA, ITALIE
1158 4896 DONCKERS HUGO 09:53:10:000 D 463 99.43 MERKSPLAS, BELGIQUE
1159 853 ALTENA JAN 09:53:16:000 E 376 99.42 SOMEREN-EIND, Pays-Bas
1160 4588 VANDERMAST GUIDO 09:53:58:000 E 377 99.34 ESSEN, BELGIQUE
1161 1903 VAN MEERLO OANE 09:54:16:000 E 378 99.31 FEANWALDEN, Pays-Bas
1162 4183 ETTEMA KEES 09:54:17:600 F 107 99.31 WESTWOUD, Pays-Bas
1163 1754 ROUKEMA ARJAN 09:54:32:000 D 464 99.28 VENHUIZEN, Pays-Bas
1164 4603 KRAAIJ ALBERT 09:54:34:500 D 465 99.28 AMSTERDAM, Pays-Bas
1165 3923 LUYTEN HENDRIK 09:54:38:000 D 466 99.27 LIER, BELGIQUE
1166 1821 DEN DAS JAN DICK 09:54:39:000 D 467 99.27 LANDSMEER, Pays-Bas
1167 2246 WALLERICK CHRISTIAN 09:54:45:000 E 379 99.26 ROBECQ, FRANCE
1168 4387 GOMMANS RICK 09:54:48:000 C 182 99.25 VENRAY, Pays-Bas
1169 2055 BAUTHAMY ANDRE 09:55:06:000 G 7 99.22 PRINQUIAU, FRANCE
1170 520 VEEN MARK 09:55:12:000 D 468 99.21 AMSTERDAM, Pays-Bas
1171 478 VELT PATRICK 09:55:15:000 D 469 99.21 OLST, Pays-Bas
1172 386 FRENKEN MARCO 09:55:15:400 C 183 99.21 AMERSFOORT, Pays-Bas
1173 2999 POEZEVARA GILLES 09:55:26:000 E 380 99.19 VENDOME, FRANCE
1174 1939 DE HEUS ROB 09:55:30:000 E 381 99.18 WIJK BIJ DUURSTEDE, Pays-bas
1175 2144 CHARNLEY LESLIE 09:55:35:000 F 108 99.17 CHESHINE, Royaume-Uni
1176 3427 BIANCO GEORGES 09:55:36:000 E 382 99.17 CONDEZAYGUES, FRANCE
1177 3055 PARRAYON J.PIERRE 09:55:37:500 F 109 99.17 PARIS, FRANCE
1178 4378 HUIBERS JORIS 09:56:04:000 C 184 99.12 ZEELAND, Pays-Bas
1179 2779 DE MUNNIK HUGO 09:56:15:000 C 185 99.10 KORTENHOEF, Pays-Bas
1180 3925 LEVERT YANNICK 09:56:17:000 D 470 99.10 DAMERY, FRANCE
1181 2934 HOCHART PATRICK 09:56:18:000 E 383 99.09 ANNECY, FRANCE
1182 1433 VAN DER MEER ARIE 09:56:44:000 E 384 99.05 SMILDE, Pays-Bas
1183 1911 VAN ZUILEKOM GERRIT 09:56:47:500 E 385 99.04 LOCHEM, Pays-Bas
1184 1926 BEURSKENS LEO 09:56:56:000 E 386 99.03 BAARLO, Pays-Bas
1185 4934 RECIO VALENZUELA GERMAN 09:56:59:000 E 387 99.02 VALENCIA, ESPAGNE
1186 2358 SAUNAL OLIVIER 09:57:13:000 D 471 99.00 CREGY LES MEAUX, FRANCE
1187 4262 KLUYTMANS PETER 09:57:20:000 D 472 98.98 NIJKERK, Pays-Bas
1188 2855 THUY BENNY 09:57:28:000 D 473 98.97 SAINT JANSTEEN, Pays-Bas
1189 4783 DESCHEEMAEHER JOS 09:57:31:000 E 388 98.97 LENDELLEDE, BELGIQUE
1190 3192 HUYGHE JAN 09:57:39:000 E 389 98.95 OOSTDUINKERKE, BELGIQUE
1191 4932 REMORTEL VAN ERIC 09:57:45:000 E 390 98.94 GOES, Pays-Bas
1192 1439 VAN DOK WILLEM 09:57:46:500 G 8 98.94 GROOTBROEK, Pays-Bas
1193 1972 KEMPERMAN PETER 09:58:08:000 E 391 98.90 ARNHEM, Pays-Bas
1194 3429 MATIAS ANTOINE 09:58:08:000 E 392 98.90 fumel, France
1195 4711 KNOOK RONALD 09:58:11:000 D 474 98.89 PURMER, Pays-Bas
1196 5203 DECOLLE MICHEL 09:58:12:000 D 475 98.89 TINTIGNY, BELGIQUE
1197 4259 STOLP EDWIN 09:58:14:000 D 476 98.89 AMSTERDAM, Pays-Bas
1198 703 CHARRA JEROME 09:58:28:000 C 186 98.86 NOGENT SUR MARNE, FRANCE
1199 3641 HASBROUCK JEAN-YVES 09:58:30:000 D 477 98.86 DEULEMONT, FRANCE
1200 1357 PENNARTZ JOS 09:58:34:000 E 393 98.85 BILTHOVEN, Pays-Bas
1201 2196 WILLEMS WILLEMS 09:58:48:000 G 9 98.83 HERENTALS, BELGIQUE
1202 5109 CADD TIMOTHY 09:59:03:000 C 187 98.80 WARWICK, Royaume-Uni
1203 1577 VAN ONGEVAL LUC 09:59:04:000 F 110 98.80 OETINGEN, BELGIQUE
1204 2574 PYNT SANDER 09:59:18:000 D 478 98.78 SLANGERUP, DANEMARK
1205 1412 THIJSSEN REMY 09:59:28:000 E 394 98.76 HOUTEN, Pays-Bas
1206 4824 HERMANS PETER 09:59:34:000 F 111 98.75 VENLO, Pays-Bas
1207 1923 WISSINK JAN-WILLEM 09:59:37:200 D 479 98.74 AMERSFOORT, Pays-Bas
1208 3037 ZOMERDIJK KLAAS 09:59:41:000 F 112 98.73 LIMMEN, Pays-Bas
1209 123 BOURLIER ALAIN 09:59:44:100 E 395 98.73 LE BEAUSSET, FRANCE
1210 2602 GRAFF LARS 09:59:52:000 D 480 98.72 HAVDRUP, DANEMARK
1211 3433 WELLEMANS JAN 09:59:53:000 C 188 98.71 LENNIK, BELGIQUE
1212 518 BESSEMS ROY 09:59:55:000 C 189 98.71 SIBBE, Pays-Bas
1213 562 WARNAR FRE 09:59:56:000 E 396 98.71 VEENENDAAL, Pays-Bas
1214 3597 PEYRAT FREDERIC 09:59:59:000 E 397 98.70 GENAY, FRANCE
1215 3387 SOARES PEREIRA FERNANDO 10:00:05:000 F 113 98.69 PALADRU, FRANCE
1216 4902 VANHIE RENZO 10:00:09:000 D 481 98.69 GENT, BELGIQUE
1217 1190 DE MARET TAK VICTOR 10:00:13:000 C 190 98.68 Arnhem, Pays-Bas
1218 2611 JOUBIN YVES 10:00:50:000 F 114 98.61 GARGENVILLE, FRANCE
1219 446 SWINKELS JOHN 10:00:55:000 E 398 98.60 DUIVEN, Pays-Bas
1220 2984 DELLA PIETA ANTONIO 10:00:59:000 E 399 98.60 TROYES, FRANCE
1221 3138 VAN LANDSCHOOT BART 10:01:01:600 D 482 98.59 MARIAKERKE(GAND), BELGIQUE
1222 2657 PITTARELLO J.PAUL 10:01:07:000 E 400 98.58 GRENOBLE, FRANCE
1223 4062 DEMARQUET MICHEL 10:01:11:000 F 115 98.58 VIEUX MESNIL, FRANCE
1224 4805 ADRIAENSEN DIRK 10:01:12:000 D 483 98.57 RYJKEVORSEL, BELGIQUE
1225 3045 LARSEN KARSTEN 10:01:17:000 E 401 98.56 M›RKE, Danemark
1226 1967 JONGEJANS PETER 10:01:18:000 D 484 98.56 ZAANDAM, Pays-Bas
1227 1012 WITTS CHARLES JOHN 10:01:34:000 E 402 98.53 SURREY, France
1228 4160 UKATWIJKHEY AD 10:01:45:000 F 116 98.51 MILL, Pays-Bas
1229 19 AMOUROUX GUY 10:02:06:000 F 117 98.48 Valence, France
1230 735 BERGEVOET FELIX 10:02:07:000 D 485 98.48 IJSSELSTEIN, Pays-bas
1231 3686 HEINEN JEAN PAUL 10:02:09:000 E 403 98.47 YVOIR, BELGIQUE
1232 5259 CASTAGNE PIERRE 10:02:17:000 D 486 98.46 CHATILLON, BELGIQUE
1233 2607 TELLIER JEAN-RAYMOND 10:02:21:000 E 404 98.45 ECHIROLLES, FRANCE
1234 11 ROBERT CLAUDE 10:02:22:800 F 118 98.45 ST CLAUDE, FRANCE
1235 3861 DUCLOS CHRISTIAN 10:02:29:000 D 487 98.44 ST CYR SUR MENTHON, FRANCE
1236 918 ENTHOVEN COR 10:02:31:000 F 119 98.43 CASTRICUM, Pays-Bas
1237 1257 GOLDSMITH JOHN 10:02:32:000 E 405 98.43 VEYRIER, FRANCE
1238 4678 NOELS GEERT 10:02:42:000 D 488 98.41 EMBLEM, BELGIQUE
1239 4002 PIERREJEAN YANNICK 10:02:44:000 C 191 98.41 BELLEGARDE SUR VALSERINE, FRANCE
1240 3752 MOREEL GEERT 10:03:03:000 E 406 98.38 IZEGEM, BELGIQUE
1241 5060 VAN OVERLOOP JEROEN 10:03:04:000 D 489 98.37 GENT, Pays-Bas
1242 4525 RIJK MARCO 10:03:09:000 D 490 98.37 OOSTERHOUT, Pays-Bas
1243 355 BAARS JOOP 10:03:10:000 F 120 98.36 TERBORG, Pays-Bas
1244 5276 ROSADA GARCIA DELFIN 10:03:23:000 E 407 98.34 PUERTO DE SAGUNTO (VALENCIA), ESPAGNE
1245 418 NOORDERMEER SANDOR 10:03:41:000 D 491 98.31 TILBURG, Pays-Bas
1246 4073 SPRUIT THEO 10:04:11:000 C 192 98.26 SCHOONHOVEN, Pays-Bas
1247 2644 MANFREDINI ROSSANO 10:04:14:000 D 492 98.25 BIBBIANO (RE), ITALIE
1248 2610 MOSCA CLAUDE 10:04:23:000 D 493 98.23 SIX FOURS, FRANCE
1249 2752 WOELDERS GERJAN 10:04:35:000 D 494 98.21 ZWOLLE, Pays-Bas
1250 4012 RUIJGROK JOOP 10:04:36:000 E 408 98.21 HEERLEN, Pays-Bas
1251 3344 DEUTSCH EMMANUEL 10:04:38:000 E 409 98.21 LONDON, Royaume-Uni
1252 1528 RADET LAURENT 10:04:39:000 E 410 98.21 Le Mesnil sur Oger, France
1253 3723 DIDIER MICHEL 10:04:41:000 E 411 98.20 VIENNE, FRANCE
1254 3678 PIANTA JRâME 10:04:43:000 D 495 98.20 AUBAGNE, FRANCE
1256 3445 GAUDARD PIERRE-PAUL 10:04:58:200 D 496 98.17 BESANCON, FRANCE
1257 1161 SACK ULRICH 10:05:02:000 F 121 98.17 COURNON D'AUVERGNE, FRANCE
1258 4852 BODIN JEAN-PIERRE 10:05:04:000 E 412 98.16 thiers, France
1259 4055 TANVEZ DAVID 10:05:05:000 D 497 98.16 PLOUASNE, FRANCE
1260 4394 RUTTEN JOS 10:05:09:000 E 413 98.15 LELYSTAD, Pays-Bas
1261 2536 WUYTS JAN 10:05:13:000 D 498 98.15 HEIST OP DEN BERG, BELGIQUE
1262 2110 AUGUSTINUS AAD 10:05:14:900 D 499 98.14 DELFT, Pays-Bas
1263 2750 WOELDERS GERBEN 10:05:16:000 C 193 98.14 ZWOLLE, Pays-Bas
1264 5148 KRISTIANSEN HENNING 10:05:17:200 E 414 98.14 MUNKEBO, DANEMARK
1265 2557 AABYE STEFFEN 10:05:18:000 C 194 98.14 SLANGERUP, DANEMARK
1266 4956 BRUIST BRIAN 10:05:20:100 C 195 98.13 PURMEREND, Pays-Bas
1267 856 BAARS HANS 10:05:36:000 E 415 98.10 ZOETERMEER, Pays-Bas
1268 1180 RANKIN NEIL 10:05:36:000 D 500 98.10 BRENTWOOD ESSEX, Royaume-Uni
1269 1473 VERVER GERARD 10:06:00:000 D 501 98.06 GRONINGEN, Pays-Bas
1270 1017 MOUTON DANNY 10:06:14:000 D 502 98.04 JABBEKE, BELGIQUE
1271 2662 ARNFINN OLESEN STEEN 10:06:21:000 E 416 98.02 ESBJERG, DANEMARK
1272 385 FRANSSEN STEF 10:06:28:000 D 503 98.01 GAP, FRANCE
1273 2349 FEHLMANN ERIC 10:06:34:000 D 504 98.00 SCHERWILLER, FRANCE
1274 1454 VAN SCHIJNDEL RONALD 10:06:42:000 D 505 97.99 ZEELAND, Pays-Bas
1275 406 KOEMAN HANS 10:06:47:000 D 506 97.98 KRABBENDIJKE, Pays-Bas
1276 4272 MORENO LOPETEGI JOXEAN 10:06:53:000 D 507 97.97 DONOSTIA, ESPAGNE
1277 378 DEKKER DRIES 10:07:03:000 E 417 97.95 IJSSELMUIDEN, Pays-Bas
1278 3503 JOHANSEN PER 10:07:32:000 E 418 97.90 SILKEBORG, DANEMARK
1279 2260 VAN DE VELDE LEO 10:07:40:000 D 508 97.88 URSEL, BELGIQUE
1280 3609 PARDAENS LEO 10:07:49:000 F 122 97.87 PELLENBERG, BELGIQUE
1281 2364 KEIJSER REMCO 10:07:52:000 C 196 97.86 DELFT, Pays-Bas
1282 749 SMOLDERS JOHAN 10:08:22:000 D 509 97.81 HAM, Belgique
1283 572 VAN DREUMEL SJOERD 10:08:24:300 C 197 97.81 NIJMEGEN, Pays-Bas
1284 805 RABINO GIUSEPPE ELIO 10:08:25:300 G 10 97.80 CAIRO MONTENOTTE, ITALIE
1285 47 FARGUES HENRI 10:08:30:000 F 123 97.80 MURAT SUR VERBE, FRANCE
1286 399 HUISKES JOHAN 10:08:40:000 E 419 97.78 ZUIDWOLDE, Pays-Bas
1287 1857 LEUSINK HENK 10:08:44:000 E 420 97.77 LOCHEM, Pays-Bas
1288 3548 STEINER HANS 10:09:03:000 F 124 97.74 VALLORBE, SUISSE
1289 5193 GARCIA GOMEZ EDUARDO 10:09:03:700 E 421 97.74 , ESPAGNE
1290 1998 POSTHUMUS MARCEL 10:09:05:600 E 422 97.73 PATERSWOLDE, Pays-Bas
1291 4705 VERHEYEN GERT 10:09:22:000 D 510 97.70 ZOERSEL, BELGIQUE
1292 2252 LAGRANGE ROBERT 10:09:26:000 G 11 97.70 MONTCENIS, FRANCE
1293 2464 MERCKX LUC 10:09:41:000 E 423 97.67 GENK, BELGIQUE
1294 4311 WIGGERS TOM 10:09:43:000 E 424 97.67 LETTELE, Pays-Bas
1295 1345 MULDER ROELAND 10:09:49:000 D 511 97.66 ERMELO, Pays-Bas
1296 1706 VAN UUM ANDRE 10:09:50:200 E 425 97.65 HARDERWIJK, Pays-Bas
1297 3644 ESCOLANO ALAIN 10:10:00:000 D 512 97.64 MONTPELLIER, FRANCE
1298 3643 AUDRIN PIERRE 10:10:01:100 C 198 97.63 ST JEAN DE VEDAS, FRANCE
1299 194 COLAS FABRICE 10:10:06:000 D 513 97.63 AUXERRE, FRANCE
1300 5303 BOUVRY PHILIPPE 10:10:12:000 C 199 97.61 BELIGNEUX, FRANCE
1301 5316 GALLY CHRISTOPHE 10:10:13:300 C 200 97.61 GRENOBLE, FRANCE
1302 1358 PEREBOOMS LUC 10:10:17:000 D 514 97.61 AMSTELHOEK, Pays-Bas
1303 2070 DELL AGNELLO LUIGI 10:10:22:000 E 426 97.60 FORCOLI (PISA), ITALIE
1304 3670 RONZINO MICHEL 10:10:36:000 E 427 97.57 MEYLAN, FRANCE
1305 5196 DRENT ANNE JELMER 10:10:38:000 C 201 97.57 ENSCHEDE, Pays-Bas
1307 3524 TAILLARDAT PASCAL 10:11:02:000 E 428 97.53 LE MAYET DE MONTAGNE, FRANCE
1308 4826 DEZILLIE SAM 10:11:12:000 C 202 97.51 HEVER, BELGIQUE
1309 2902 BIELEN PAUL 10:11:18:000 D 515 97.50 ELLECOM, Pays-Bas
1310 985 LUIKINGA FRANK 10:11:19:000 D 516 97.50 ZAANDAM, Pays-Bas
1311 4181 BUCHLI JAAP 10:11:51:000 E 429 97.44 SANTPOORT ZUID, Pays-bas
1312 1326 GULDHAMMER JOHN 10:11:52:000 G 12 97.44 VEJLE, DANEMARK
1314 2285 DANIELS RUDI 10:11:58:000 D 518 97.43 OPOETEREN, BELGIQUE
1315 2510 GARCIN JEAN LUC 10:12:06:000 F 125 97.41 ST MICHEL LOUBEJOU, FRANCE
1316 402 KETELAARS ALBERT 10:12:28:000 D 519 97.37 VEGHEL, Pays-Bas
1317 1828 GOETHALS JAN 10:12:34:000 E 430 97.36 KUURNE, BELGIQUE
1318 2681 BROSSAIS ALAIN 10:12:41:000 E 431 97.35 ARROMANCHES, FRANCE
1319 677 CROESE PETER 10:12:43:000 G 13 97.35 ROTTERDAM, Pays-Bas
1320 4320 SPIKKER JAN 10:12:54:000 F 126 97.33 LETTELE, Pays-Bas
1321 1599 VERWEIJ ERWIN 10:12:59:000 C 203 97.32 WOERDEN, Pays-Bas
1322 3345 WIERDA HANS 10:13:09:000 E 432 97.30 ZAANDAM, Pays-Bas
1323 1084 VIANA FERNANDEZ ALFREDO 10:13:11:000 F 127 97.30 VALENCIA, ESPAGNE
1324 3421 VERGER PASCAL 10:13:20:000 E 433 97.28 GRENOBLE, FRANCE
1325 4957 DE JONG RONALD 10:13:27:000 E 434 97.27 PURMEREND, Pays-Bas
1326 4414 KRAMP WENDIE 10:13:58:000 A 13 97.21 NIEUW BEIJERLAND, Pays-Bas
1327 4596 HOOGLANDER VERA 10:13:59:000 E 435 97.21 ODENSE, DANEMARK
1328 4974 DE WOLF LUC 10:14:00:400 E 436 97.21 WEZEMAAL, BELGIQUE
1329 877 BONGENAAR GUUS 10:14:05:000 E 437 97.20 ALKMAAR, Pays-Bas
1330 5136 STOTER ALBERT 10:14:08:200 E 438 97.20 ARNHEM, Pays-Bas
1331 4552 AUGUIE ALAIN 10:14:16:000 D 520 97.18 FIGEAC, FRANCE
1332 3663 ZAMPEDRI FLAVIO 10:14:26:000 E 439 97.16 MILANO, ITALIE
1333 4706 HINNEMAN RONNY 10:14:30:000 D 521 97.16 LILLE, BELGIQUE
1334 1325 PLATZ OLSEN KNUD 10:14:41:000 F 128 97.14 VEJLE OST, DANEMARK
1335 3864 HELSEN FRANCOIS 10:14:46:500 E 440 97.13 BEVEL, BELGIQUE
1336 765 FRIEDL JAN 10:14:59:000 F 129 97.11 ISHøJ, DANEMARK
1337 4721 BAKKER PAUL 10:15:10:000 F 130 97.09 BARNEVELD, Pays-Bas
1338 4943 SPOOREN PATRICK 10:15:18:000 E 441 97.07 HECHTEL, BELGIQUE
1339 4933 RECIO GIMENEZ ALBERTO 10:15:19:000 C 204 97.07 VALENCIA, ESPAGNE
1340 208 PERROUELLE CHRISTIAN 10:15:21:000 F 131 97.07 BLOTZHEIM, FRANCE
1341 4275 ROSEBOOM DENNIS 10:15:22:000 C 205 97.06 Middelburg, Pays-Bas
1342 1714 TIRANZONI DAVID 10:15:22:600 D 522 97.06 BREUCHES LES LUXEUIL, France
1344 4247 KLEIN KRANENBURG TIMO 10:15:34:000 C 206 97.04 AMSTERDAM, Pays-Bas
1345 227 DE VLEESCHOUWER DANNY 10:15:36:900 E 442 97.04 GERAARDSBERGEN, Belgique
1346 405 KIELMAN GERARD 10:15:41:000 E 443 97.03 VOORSCHOTEN, Pays-Bas
1347 2453 PEDERSEN HANS HENRIK 10:15:44:000 D 524 97.03 NYKOBING, DANEMARK
1348 5122 JOOSTEN DIRK 10:16:06:000 E 444 96.99 Ede, Pays-Bas
1349 3841 HASSINK RUTGER J 10:16:08:000 C 207 96.98 HOUTEN, Pays-Bas
1350 3965 HYVERT PATRICE 10:16:12:000 D 525 96.98 MONTFERRIER SUR LEZ, FRANCE
1351 2683 GAETAN ROLAND 10:16:23:000 E 445 96.96 AMBRONAY, France
1352 734 SCHERRER CEDRIC 10:16:30:000 C 208 96.94 BRUNSTATT, FRANCE
1353 2736 VAN OOIJEN JURJEN 10:16:54:000 C 209 96.90 KROMMENIE, Pays-Bas
1354 2810 IN DE BRAEKT BERT 10:17:30:000 F 132 96.84 MAASTRICHT, Pays-Bas
1355 3664 BASSO DE MARCH J.LUC 10:17:58:000 E 446 96.79 STE MAURE DE TOURAINE, FRANCE
1356 3407 PRAT ALAIN 10:18:00:000 E 447 96.78 CHABEUIL, FRANCE
1357 427 SAAN BUDD 10:18:03:000 D 526 96.78 HELLEVOETSLUIS, Pays-Bas
1359 1593 STROMSTAD MORTEN 10:19:18:000 D 527 96.65 SOBORG, DANEMARK
1360 1018 HUYGHE PATRICK 10:19:36:000 D 528 96.61 JABBEKE, BELGIQUE
1361 1709 SOLDERMANN LUC 10:19:57:000 E 449 96.58 MULHOUSE, FRANCE
1362 1712 FALLECKER PIERRE 10:19:58:000 E 450 96.58 BRUNSTATT, FRANCE
1363 954 JORRITSMA J. 10:19:58:400 D 529 96.58 SMILDE, Pays-Bas
1364 981 LANKHOORN ED 10:20:26:000 F 133 96.53 MIDDENBEEMSTER, Pays-Bas
1365 4786 LEENKNECHT LIEVEN 10:20:27:200 D 530 96.52 HEULE, BELGIQUE
1366 1301 VERTESSEN WERNER 10:20:28:000 D 531 96.52 SCHOTEN, BELGIQUE
1367 1142 DIAZ GAYUBO JOSE-FRANCISCO 10:20:29:000 D 532 96.52 PALMA DE MALORCA, ESPAGNE
1368 1734 BREULS STEPHANE 10:20:36:000 D 533 96.51 BRUXELLES, Belgique
1369 2885 WIERSMA GERT LUUK 10:20:47:000 D 534 96.49 ZUIDLAREN, Pays-Bas
1370 1263 HESSLOW BENGT 10:20:49:000 E 451 96.48 VARBERG, SUEDE
1371 3557 HERNANDEZ FRANCIS 10:20:49:500 F 134 96.48 MULHOUSE, France
1372 4806 ROELSE JOOST 10:20:50:000 D 535 96.48 NIJMEGEN, Pays-Bas
1373 3338 HEINEN THIERRY 10:20:54:000 D 536 96.48 FAUVILLERS, BELGIQUE
1374 1338 SIJSTERMANS JACK 10:21:02:000 E 452 96.46 LANDGRAAF, Pays-Bas
1375 4808 BERKHOUT ARJO 10:21:12:000 E 453 96.44 NIJMEGEN, Pays-Bas
1376 504 SIMONIS ROEL 10:21:18:000 F 135 96.43 EERBEEK, Pays-Bas
1377 614 CUPERUS MINNE 10:21:20:000 D 537 96.43 VELDHOVEN, Pays-Bas
1378 435 SCHOUTEN MICHIEL 10:21:27:000 D 538 96.42 ZOELEN, Pays-Bas
1379 2284 BEDETTI GIORGIO 10:21:32:000 F 136 96.41 BOLOGNA, ITALIE
1380 1581 FORT ERIC 10:21:33:000 D 539 96.41 AMILLY, FRANCE
1381 1053 LIEPHOUT PHILIPPE 10:21:38:000 E 454 96.40 JONQUIERES, FRANCE
1382 2184 TOURNAY THIERRY 10:21:44:000 D 540 96.39 LISCHERT, BELGIQUE
1383 3475 FRANSSON BENT 10:22:02:000 F 137 96.35 SVENDBORG, DANEMARK
1384 5125 STRABELLO LUCIANO 10:22:20:000 E 455 96.32 ROVEREDO DI GUA (VR), ITALIE
1385 365 COPPENOLLE WIM 10:22:32:000 D 541 96.30 HOUTHULST, BELGIQUE
1386 4526 VERHOEFF ROALD 10:22:37:000 C 210 96.29 VUGHT, Pays-Bas
1387 4294 EIJPE PETER 10:22:40:900 F 138 96.29 BUSSUM, Pays-Bas
1388 831 EGGERMONT NATHAN 10:22:42:000 D 542 96.28 BRUGGE, BELGIQUE
1389 5076 LALLEMAND DENIS 10:22:58:000 C 211 96.26 SAULXURES SUR MOSELOTTE, FRANCE
1390 3748 MOLINA JUAN 10:23:13:000 D 543 96.23 GRANADA, ESPAGNE
1391 4658 MICHOLT JOHAN 10:23:17:000 E 456 96.22 OTEGEM, BELGIQUE
1392 2319 APPELDOORN MIKE 10:23:19:000 D 544 96.22 WOERDEN, Pays-Bas
1393 852 AARTS SERVAAS HUBERT MARIA 10:23:31:000 F 139 96.20 EIJSDEN, Pays-Bas
1394 731 SEGERS ERIC 10:23:33:000 E 457 96.19 Kessel-Lo, Belgique
1395 876 BONGENAAR SVEN 10:23:37:000 C 212 96.19 ALKMAAR, Pays-Bas
1396 4994 VRIEND JOS 10:23:42:000 E 458 96.18 ZWAAG, Pays-Bas
1397 2366 POULSTRUP AKSEL 10:23:46:100 E 459 96.17 RISSKOV, DANEMARK
1398 4733 TACK PETER 10:24:09:000 C 213 96.13 LEMBEKE, BELGIQUE
1399 2606 GROENNEBAEK MOGENS 10:24:10:500 F 140 96.13 JæGERSPRIS, DANEMARK
1400 4807 WISMAN CEES 10:24:29:000 F 141 96.09 MAITWEG, Pays-Bas
1401 945 HUMMEL BEREND 10:24:33:000 F 142 96.09 ZUIDWOLDE, Pays-Bas
1402 2718 TANIA JERRY 10:24:56:000 D 545 96.05 ZAANDIJK, Pays-Bas
1403 4960 VANHAELEWIJCK RENE 10:24:58:600 G 14 96.04 OUD HEVERLEE, BELGIQUE
1404 2813 JONKER R G 10:25:00:000 E 460 96.04 ZUIDLAREN, Pays-Bas
1405 3383 HUT EVERT 10:25:00:000 E 461 96.04 ANDEREN, Pays-Bas
1406 380 DOLMANS PIER 10:25:22:000 C 214 96.00 EINDHOVEN, Pays-Bas
1407 1306 BECH MORTEN 10:25:24:000 D 546 96.00 VEJLE, DANEMARK
1408 4799 JANSSEN DIRK 10:25:33:000 E 462 95.98 RAVELS, BELGIQUE
1409 2085 AUDENOT MICHEL 10:25:36:000 F 143 95.98 AUBIGNY SUR NERE, FRANCE
1410 645 BOERMAN JACOBUS 10:25:43:000 D 547 95.96 HARDEWIJK, Pays-Bas
1411 4821 BOLEA RUIZ JOSE 10:25:45:000 E 463 95.96 MUSEROS-VALENCIA, ESPAGNE
1412 4380 VAN DER WAL JAAP 10:25:48:000 E 464 95.95 LANOSMEER, Pays-Bas
1413 3650 HEIRBAUT ROB 10:25:54:000 D 548 95.94 OUD-HEVERLEE, BELGIQUE
1414 4336 LANGEMAIRE MARTIN 10:25:59:000 D 549 95.93 SASSENHEIM, Pays-Bas
1415 666 VAN DER PLOEG JAN 10:26:18:000 E 465 95.90 ROTTERDAM, Pays-Bas
1416 668 HOGERVORST FRANS 10:26:18:900 E 466 95.90 PIJNACKER, Pays-Bas
1417 3571 LARSEN JORN-PEDER 10:26:20:700 F 144 95.90 EBELTOFT, DANEMARK
1418 4061 VAN TUINEN JAAP 10:26:36:000 D 550 95.87 MOORDRECHT, Pays-Bas
1419 4609 BRUNON OLIVIER 10:26:37:000 D 551 95.87 ST JEAN BONNEFONDS, FRANCE
1420 5124 ZOGNO DAVID 10:26:39:000 C 215 95.86 PONSO, ITALIE
1421 5064 OOSTERHOF POPKE 10:26:40:500 F 145 95.86 TERIDZARD, Pays-Bas
1422 730 TORNOE HENRIK 10:26:50:000 E 467 95.84 GLOSTRUP, DANEMARK
1423 2156 VAN DER JEUGDT JOHAN 10:26:58:000 E 468 95.83 Lokeren, Belgique
1424 3321 DE VRIES ERWIN 10:27:00:000 D 552 95.83 AMSTERDAM, Pays-Bas
1425 4024 NAT MARCEL 10:27:00:000 D 553 95.83 OOSTGRAFTDIJK, Pays-Bas
1426 4608 KOLKMAN SIMON B. 10:27:19:000 C 216 95.79 HENGELO, Pays-Bas
1427 5019 GRAAT HAD 10:27:38:000 F 146 95.76 MEIJEL, Pays-Bas
1428 2948 DAUDU GEORGES 10:27:41:000 F 147 95.75 LA SEYNE S/MER, FRANCE
1429 1904 VAN OORT ERIK 10:28:04:000 D 554 95.71 DIESSEN, Pays-Bas
1430 1279 VAN WILGENBURG FERRY 10:28:07:000 E 469 95.71 BERKEL EN RODENRIJS, Pays-Bas
1431 1962 HUSSAARTS INEKE 10:28:24:000 B 7 95.68 MAASTRICHT, Pays-Bas
1432 2651 JENNES DIRK 10:28:25:000 E 470 95.68 RANST, BELGIQUE
1433 3624 BOELENS JEAN-LUC 10:28:30:000 F 148 95.67 MONTLOUIS SUR LOIRE, FRANCE
1434 2062 VAN GULIK KOEN 10:28:46:000 E 471 95.64 UTRECHT, Pays-Bas
1435 2772 CHIALASTRI HANS 10:29:00:000 D 555 95.61 BEVERWIJK, Pays-Bas
1436 5311 WOOD GEOFFREY 10:29:10:000 C 217 95.60 PRESTON, Royaume-Uni
1437 5319 DODEMAN RENE 10:29:13:000 E 472 95.59 AMSTERDAM, Pays-Bas
1438 429 SARNEEL NIEK 10:29:17:000 C 218 95.58 ROTTERDAM, Pays-Bas
1439 2493 KOLBRINK MARTIN 10:29:45:000 D 556 95.53 DENEKAMP, Pays-Bas
1440 4762 IPPEN HENNY 10:29:53:000 E 473 95.52 VELDHOVEN, Pays-Bas
1441 3273 VANDERVELDEN FILIP 10:29:54:000 F 149 95.52 DILBEEK, BELGIQUE
1442 4948 BOERSMA WIEBE 10:30:04:000 D 557 95.50 SINT PANCRAS, Pays-Bas
1443 4761 VAN BLADEL GERBEN 10:30:05:100 D 558 95.50 VLIJMEN, Pays-Bas
1444 5308 ROZENBERG JEROEN 10:30:06:000 C 219 95.50 BEETSTERZWAAG, Pays-Bas
1445 1811 BUTTER SIEM 10:30:10:000 F 150 95.49 WORMERVEER, Pays-Bas
1446 747 DE SAEDELEER EDDY 10:30:21:000 E 474 95.47 ERPE MERE, BELGIQUE
1447 1120 MAARTENS LUC 10:30:23:000 E 475 95.47 EINDHOVEN, Pays-Bas
1448 2414 EINDHOVEN A